BAW49 EGLL-KSEA

Flight info

Callsign BAW49
Flight time 9h 27m
Altitude 32000
Route ULTIB T420 TNT UN57 POL UN601 RIBEL DCT ERSON DCT BESGA DCT MATIK/M082F320 DCT 65N010W/M083F340 70N020W 74N040W 75N060W DCT GELBO/N0472F340 DCT 74N080W 70N098W/N0482F360 65N108W 60N114W 55N118W DCT FOLDY DCT JAKSN GLASR3
Aircraft B77W/H-SDE1E2E3FGHIJ2J3J4J5M1RWXY/LB1D1

Departure

Time 2026-05-05 10:03
Airport London Heathrow Airport (EGLL)

Arrival

Time 2026-05-05 19:30
Airport Seattle–Tacoma International Airport (KSEA)
Time Latitude Longitude Altitude Speed Heading
2026-05-05 09:24 51.46915 -0.48239 91 ft 0 kts 89°
2026-05-05 09:53 51.46915 -0.48258 94 ft 4 kts 89°
2026-05-05 09:53 51.46915 -0.48307 94 ft 4 kts 92°
2026-05-05 09:53 51.46918 -0.48334 91 ft 4 kts 122°
2026-05-05 09:54 51.46935 -0.48355 92 ft 3 kts 179°
2026-05-05 09:54 51.46961 -0.48355 93 ft 4 kts 179°
2026-05-05 09:54 51.46971 -0.48355 92 ft 0 kts 179°
2026-05-05 09:58 51.46967 -0.48355 93 ft 2 kts 179°
2026-05-05 09:59 51.46935 -0.48355 92 ft 7 kts 180°
2026-05-05 09:59 51.46870 -0.48354 92 ft 11 kts 180°
2026-05-05 09:59 51.46796 -0.48354 91 ft 11 kts 180°
2026-05-05 09:59 51.46753 -0.48375 95 ft 7 kts 232°
2026-05-05 10:00 51.46742 -0.48473 93 ft 11 kts 269°
2026-05-05 10:00 51.46741 -0.48620 91 ft 12 kts 270°
2026-05-05 10:00 51.46731 -0.48723 96 ft 8 kts 230°
2026-05-05 10:00 51.46675 -0.48748 94 ft 8 kts 181°
2026-05-05 10:01 51.46617 -0.48759 93 ft 8 kts 194°
2026-05-05 10:01 51.46561 -0.48786 94 ft 8 kts 193°
2026-05-05 10:01 51.46506 -0.48767 96 ft 8 kts 145°
2026-05-05 10:01 51.46480 -0.48686 95 ft 8 kts 98°
2026-05-05 10:02 51.46479 -0.48590 91 ft 11 kts 90°
2026-05-05 10:02 51.46480 -0.48246 93 ft 62 kts 89°
2026-05-05 10:02 51.46484 -0.47128 95 ft 135 kts 90°
2026-05-05 10:02 51.46492 -0.45295 100 ft 193 kts 89°
2026-05-05 10:03 51.46484 -0.43147 713 ft 192 kts 88°
2026-05-05 10:03 51.46647 -0.41043 1340 ft 189 kts 62°
2026-05-05 10:03 51.47428 -0.39378 1888 ft 188 kts 48°
2026-05-05 10:03 51.48306 -0.37699 2068 ft 209 kts 49°
2026-05-05 10:04 51.49278 -0.35827 2390 ft 227 kts 49°
2026-05-05 10:04 51.50324 -0.33815 2858 ft 238 kts 49°
2026-05-05 10:04 51.51394 -0.31759 3543 ft 241 kts 50°
2026-05-05 10:04 51.52391 -0.29624 4044 ft 248 kts 63°
2026-05-05 10:05 51.52959 -0.27017 4548 ft 255 kts 73°
2026-05-05 10:05 51.53503 -0.24288 5311 ft 252 kts 71°
2026-05-05 10:05 51.54074 -0.21605 5952 ft 259 kts 70°
2026-05-05 10:05 51.54927 -0.19103 6369 ft 264 kts 43°
2026-05-05 10:06 51.56557 -0.17756 6837 ft 270 kts
2026-05-05 10:06 51.58398 -0.18191 7446 ft 274 kts 333°
2026-05-05 10:06 51.59881 -0.20099 8027 ft 275 kts 315°
2026-05-05 10:06 51.61317 -0.22194 8551 ft 281 kts 323°
2026-05-05 10:07 51.62893 -0.24044 9276 ft 279 kts 324°
2026-05-05 10:07 51.64430 -0.25898 9854 ft 283 kts 324°
2026-05-05 10:07 51.66054 -0.27701 10482 ft 285 kts 327°
2026-05-05 10:07 51.67731 -0.29433 11038 ft 289 kts 329°
2026-05-05 10:08 51.69499 -0.31188 11294 ft 308 kts 329°
2026-05-05 10:08 51.71394 -0.33034 11475 ft 329 kts 330°
2026-05-05 10:08 51.73427 -0.34996 11644 ft 351 kts 329°
2026-05-05 10:08 51.75562 -0.37050 11917 ft 368 kts 330°
2026-05-05 10:09 51.77803 -0.39204 12468 ft 378 kts 330°
2026-05-05 10:09 51.80079 -0.41392 13235 ft 383 kts 330°
2026-05-05 10:09 51.82389 -0.43625 14004 ft 386 kts 329°
2026-05-05 10:09 51.84704 -0.45885 14713 ft 391 kts 329°
2026-05-05 10:10 51.87027 -0.48161 15322 ft 397 kts 328°
2026-05-05 10:10 51.89406 -0.50493 15952 ft 403 kts 328°
2026-05-05 10:10 51.91819 -0.52858 16643 ft 407 kts 328°
2026-05-05 10:10 51.94270 -0.55263 17245 ft 413 kts 328°
2026-05-05 10:11 51.96732 -0.57670 17864 ft 419 kts 328°
2026-05-05 10:11 51.99249 -0.60123 18503 ft 423 kts 328°
2026-05-05 10:11 52.01779 -0.62591 19158 ft 425 kts 328°
2026-05-05 10:11 52.04329 -0.65084 19777 ft 428 kts 328°
2026-05-05 10:12 52.06901 -0.67601 20378 ft 431 kts 327°
2026-05-05 10:12 52.09452 -0.70104 20949 ft 435 kts 327°
2026-05-05 10:12 52.12067 -0.72673 21492 ft 439 kts 327°
2026-05-05 10:12 52.14703 -0.75270 22049 ft 443 kts 327°
2026-05-05 10:13 52.17324 -0.77867 22583 ft 447 kts 327°
2026-05-05 10:13 52.19999 -0.80522 23141 ft 451 kts 327°
2026-05-05 10:13 52.22699 -0.83204 23641 ft 454 kts 327°
2026-05-05 10:13 52.25414 -0.85903 24092 ft 458 kts 327°
2026-05-05 10:14 52.28112 -0.88581 24566 ft 460 kts 327°
2026-05-05 10:14 52.30873 -0.91315 25106 ft 460 kts 326°
2026-05-05 10:14 52.33583 -0.94003 25580 ft 462 kts 326°
2026-05-05 10:14 52.36348 -0.96753 25995 ft 466 kts 326°
2026-05-05 10:15 52.39136 -0.99532 26409 ft 469 kts 326°
2026-05-05 10:15 52.41939 -1.02328 26814 ft 472 kts 326°
2026-05-05 10:15 52.44729 -1.05118 27229 ft 474 kts 326°
2026-05-05 10:15 52.47558 -1.07950 27641 ft 476 kts 326°
2026-05-05 10:16 52.50397 -1.10803 28027 ft 479 kts 326°
2026-05-05 10:16 52.53245 -1.13691 28401 ft 481 kts 326°
2026-05-05 10:16 52.56073 -1.16567 28735 ft 484 kts 326°
2026-05-05 10:16 52.58951 -1.19487 29083 ft 486 kts 327°
2026-05-05 10:17 52.61841 -1.22412 29504 ft 486 kts 327°
2026-05-05 10:17 52.64690 -1.25296 30011 ft 484 kts 327°
2026-05-05 10:17 52.67557 -1.28206 30458 ft 482 kts 327°
2026-05-05 10:17 52.70415 -1.31114 30842 ft 481 kts 327°
2026-05-05 10:18 52.73273 -1.34021 31193 ft 481 kts 327°
2026-05-05 10:18 52.76124 -1.36922 31544 ft 481 kts 328°
2026-05-05 10:18 52.78967 -1.39822 31916 ft 479 kts 328°
2026-05-05 10:18 52.81780 -1.42692 32020 ft 483 kts 329°
2026-05-05 10:19 52.87500 -1.48544 32021 ft 480 kts 328°
2026-05-05 10:19 52.93131 -1.54333 32025 ft 478 kts 329°
2026-05-05 10:20 52.98802 -1.60172 32022 ft 477 kts 329°
2026-05-05 10:20 53.04447 -1.65920 32025 ft 477 kts 332°
2026-05-05 10:21 53.10481 -1.70321 32029 ft 475 kts 340°
2026-05-05 10:21 53.16624 -1.74017 32021 ft 475 kts 340°
2026-05-05 10:22 53.22809 -1.77782 32022 ft 475 kts 340°
2026-05-05 10:22 53.29015 -1.81631 32026 ft 474 kts 339°
2026-05-05 10:23 53.35215 -1.85512 32026 ft 474 kts 339°
2026-05-05 10:23 53.41367 -1.89372 32041 ft 474 kts 339°
2026-05-05 10:24 53.47556 -1.93265 32029 ft 474 kts 339°
2026-05-05 10:24 53.53732 -1.97164 32034 ft 473 kts 339°
2026-05-05 10:25 53.59872 -2.01050 32030 ft 473 kts 339°
2026-05-05 10:25 53.66056 -2.04976 32029 ft 473 kts 339°
2026-05-05 10:26 53.71999 -2.08762 32038 ft 473 kts 339°
2026-05-05 10:26 53.78216 -2.12855 32028 ft 473 kts 336°
2026-05-05 10:27 53.84313 -2.17120 32029 ft 472 kts 336°
2026-05-05 10:27 53.90370 -2.21294 32028 ft 472 kts 337°
2026-05-05 10:28 53.96471 -2.25466 32028 ft 471 kts 337°
2026-05-05 10:28 54.02521 -2.29635 32027 ft 471 kts 335°
2026-05-05 10:29 54.08515 -2.34158 32027 ft 470 kts 334°
2026-05-05 10:29 54.14461 -2.38853 32025 ft 470 kts 333°
2026-05-05 10:30 54.20370 -2.43502 32027 ft 470 kts 334°
2026-05-05 10:30 54.26336 -2.48164 32030 ft 469 kts 333°
2026-05-05 10:31 54.32250 -2.52785 32027 ft 468 kts 333°
2026-05-05 10:31 54.38191 -2.57439 32021 ft 467 kts 333°
2026-05-05 10:32 54.44070 -2.62064 32013 ft 467 kts 333°
2026-05-05 10:32 54.49983 -2.66728 32033 ft 466 kts 332°
2026-05-05 10:33 54.55877 -2.71395 32018 ft 466 kts 332°
2026-05-05 10:33 54.61744 -2.76055 32021 ft 466 kts 332°
2026-05-05 10:34 54.67647 -2.80757 32021 ft 466 kts 332°
2026-05-05 10:34 54.73521 -2.85453 32042 ft 466 kts 332°
2026-05-05 10:35 54.79390 -2.90158 32029 ft 466 kts 332°
2026-05-05 10:35 54.85263 -2.94882 32028 ft 466 kts 332°
2026-05-05 10:36 54.91150 -2.99634 32019 ft 465 kts 332°
2026-05-05 10:36 54.97032 -3.04394 32044 ft 465 kts 332°
2026-05-05 10:37 55.02866 -3.09134 32025 ft 465 kts 332°
2026-05-05 10:37 55.07754 -3.13117 32025 ft 465 kts 332°
2026-05-05 10:38 55.13630 -3.17918 32043 ft 466 kts 332°
2026-05-05 10:38 55.19512 -3.22738 32022 ft 466 kts 332°
2026-05-05 10:39 55.25393 -3.27575 32033 ft 466 kts 332°
2026-05-05 10:39 55.31248 -3.32407 32029 ft 466 kts 332°
2026-05-05 10:40 55.37101 -3.37253 32031 ft 466 kts 332°
2026-05-05 10:40 55.42949 -3.42108 32034 ft 465 kts 332°
2026-05-05 10:41 55.48820 -3.47004 32055 ft 465 kts 332°
2026-05-05 10:41 55.54652 -3.51879 32045 ft 465 kts 332°
2026-05-05 10:42 55.63417 -3.59237 32044 ft 465 kts 332°
2026-05-05 10:43 55.69268 -3.64171 32042 ft 465 kts 332°
2026-05-05 10:43 55.75118 -3.69121 32063 ft 465 kts 332°
2026-05-05 10:44 55.80927 -3.74050 32059 ft 465 kts 332°
2026-05-05 10:44 55.86767 -3.79024 32037 ft 464 kts 332°
2026-05-05 10:45 55.92597 -3.84001 32049 ft 464 kts 332°
2026-05-05 10:45 55.98404 -3.88979 32044 ft 464 kts 332°
2026-05-05 10:46 56.04201 -3.93966 32047 ft 464 kts 331°
2026-05-05 10:46 56.10019 -3.98990 32045 ft 464 kts 332°
2026-05-05 10:47 56.15849 -4.04039 32049 ft 464 kts 332°
2026-05-05 10:47 56.21673 -4.09097 32046 ft 464 kts 332°
2026-05-05 10:48 56.27455 -4.14141 32059 ft 465 kts 331°
2026-05-05 10:48 56.33279 -4.19236 32060 ft 464 kts 331°
2026-05-05 10:49 56.39100 -4.24349 32045 ft 464 kts 331°
2026-05-05 10:49 56.44878 -4.29437 32073 ft 463 kts 331°
2026-05-05 10:50 56.50806 -4.34123 32091 ft 464 kts 335°
2026-05-05 10:50 56.56788 -4.38441 32068 ft 464 kts 335°
2026-05-05 10:51 56.62802 -4.42786 32072 ft 464 kts 335°
2026-05-05 10:51 56.68765 -4.47154 32085 ft 464 kts 335°
2026-05-05 10:52 56.74754 -4.51578 32075 ft 464 kts 335°
2026-05-05 10:52 56.80719 -4.56005 32106 ft 463 kts 334°
2026-05-05 10:53 56.86706 -4.60462 32099 ft 463 kts 334°
2026-05-05 10:53 56.92636 -4.64892 32090 ft 462 kts 334°
2026-05-05 10:54 56.98586 -4.69349 32100 ft 461 kts 334°
2026-05-05 10:54 57.04533 -4.73824 32130 ft 461 kts 334°
2026-05-05 10:55 57.10435 -4.78280 32118 ft 460 kts 334°
2026-05-05 10:55 57.16355 -4.82763 32116 ft 458 kts 334°
2026-05-05 10:56 57.22219 -4.87219 32119 ft 457 kts 333°
2026-05-05 10:56 57.28100 -4.91703 32126 ft 457 kts 333°
2026-05-05 10:57 57.33952 -4.96183 32132 ft 457 kts 333°
2026-05-05 10:57 57.39848 -5.00711 32127 ft 457 kts 333°
2026-05-05 10:58 57.45697 -5.05219 32123 ft 457 kts 333°
2026-05-05 10:58 57.51581 -5.09767 32122 ft 457 kts 333°
2026-05-05 10:59 57.57424 -5.14301 32137 ft 457 kts 333°
2026-05-05 10:59 57.63311 -5.18886 32134 ft 456 kts 333°
2026-05-05 11:00 57.69150 -5.23448 32126 ft 456 kts 333°
2026-05-05 11:00 57.75003 -5.28038 32152 ft 454 kts 333°
2026-05-05 11:01 57.80808 -5.32606 32132 ft 454 kts 333°
2026-05-05 11:01 57.86655 -5.37224 32152 ft 454 kts 332°
2026-05-05 11:02 57.92442 -5.41810 32147 ft 452 kts 332°
2026-05-05 11:02 57.98238 -5.46419 32149 ft 451 kts 332°
2026-05-05 11:03 58.03998 -5.51016 32152 ft 450 kts 332°
2026-05-05 11:03 58.09759 -5.55631 32180 ft 451 kts 332°
2026-05-05 11:04 58.13688 -5.58786 32202 ft 450 kts 332°
2026-05-05 11:04 58.18322 -5.62519 32169 ft 450 kts 332°
2026-05-05 11:05 58.23247 -5.66499 32160 ft 451 kts 332°
2026-05-05 11:05 58.28477 -5.70736 32160 ft 451 kts 332°
2026-05-05 11:06 58.34142 -5.75342 32156 ft 451 kts 332°
2026-05-05 11:06 58.39579 -5.79777 32166 ft 451 kts 332°
2026-05-05 11:07 58.45348 -5.84500 32160 ft 450 kts 332°
2026-05-05 11:07 58.51086 -5.89213 32159 ft 449 kts 332°
2026-05-05 11:08 58.56835 -5.93953 32161 ft 449 kts 332°
2026-05-05 11:08 58.62553 -5.98684 32159 ft 448 kts 331°
2026-05-05 11:09 58.68298 -6.03455 32163 ft 448 kts 331°
2026-05-05 11:09 58.74000 -6.08208 32167 ft 448 kts 331°
2026-05-05 11:10 58.79752 -6.13020 32168 ft 449 kts 331°
2026-05-05 11:10 58.85461 -6.17812 32170 ft 449 kts 331°
2026-05-05 11:11 58.91199 -6.22646 32181 ft 450 kts 331°
2026-05-05 11:11 58.96941 -6.27501 32167 ft 449 kts 331°
2026-05-05 11:12 59.02649 -6.32345 32171 ft 449 kts 331°
2026-05-05 11:12 59.08367 -6.37214 32169 ft 448 kts 331°
2026-05-05 11:13 59.14050 -6.42073 32154 ft 448 kts 331°
2026-05-05 11:13 59.19738 -6.46953 32176 ft 448 kts 330°
2026-05-05 11:14 59.25441 -6.51864 32169 ft 447 kts 330°
2026-05-05 11:14 59.31138 -6.56787 32168 ft 446 kts 330°
2026-05-05 11:15 59.36787 -6.61688 32168 ft 445 kts 330°
2026-05-05 11:15 59.42429 -6.66600 32169 ft 445 kts 330°
2026-05-05 11:16 59.48097 -6.71553 32172 ft 445 kts 330°
2026-05-05 11:16 59.53758 -6.76517 32169 ft 443 kts 330°
2026-05-05 11:17 59.59370 -6.81458 32166 ft 442 kts 330°
2026-05-05 11:17 59.64996 -6.86428 32166 ft 442 kts 330°
2026-05-05 11:18 59.70574 -6.91375 32214 ft 442 kts 329°
2026-05-05 11:18 59.76201 -6.96384 32180 ft 442 kts 329°
2026-05-05 11:19 59.81794 -7.01379 32166 ft 441 kts 329°
2026-05-05 11:19 59.87388 -7.06398 32169 ft 440 kts 329°
2026-05-05 11:20 59.92978 -7.11429 32170 ft 440 kts 329°
2026-05-05 11:20 59.98529 -7.16443 32223 ft 440 kts 329°
2026-05-05 11:21 60.04117 -7.21510 32187 ft 440 kts 329°
2026-05-05 11:21 60.09701 -7.26590 32168 ft 439 kts 329°
2026-05-05 11:22 60.15237 -7.31647 32163 ft 439 kts 329°
2026-05-05 11:22 60.20790 -7.36739 32167 ft 438 kts 329°
2026-05-05 11:23 60.26314 -7.41826 32224 ft 438 kts 329°
2026-05-05 11:23 60.31876 -7.46964 32184 ft 438 kts 329°
2026-05-05 11:24 60.36492 -7.51243 32174 ft 438 kts 329°
2026-05-05 11:24 60.42009 -7.56373 32172 ft 437 kts 329°
2026-05-05 11:25 60.47549 -7.61545 32177 ft 436 kts 329°
2026-05-05 11:25 60.53048 -7.66699 32178 ft 436 kts 329°
2026-05-05 11:26 60.58536 -7.71864 32176 ft 436 kts 329°
2026-05-05 11:26 60.64044 -7.77066 32169 ft 435 kts 329°
2026-05-05 11:27 60.69531 -7.82268 32173 ft 433 kts 329°
2026-05-05 11:27 60.74976 -7.87451 32177 ft 433 kts 329°
2026-05-05 11:28 60.80504 -7.92488 32174 ft 437 kts 333°
2026-05-05 11:28 60.86228 -7.96615 32183 ft 437 kts 334°
2026-05-05 11:29 60.91932 -8.00748 32182 ft 436 kts 333°
2026-05-05 11:29 60.97630 -8.04940 32178 ft 435 kts 333°
2026-05-05 11:30 61.03523 -8.08322 32175 ft 441 kts 341°
2026-05-05 11:30 61.09518 -8.10788 32250 ft 442 kts 341°
2026-05-05 11:31 61.15562 -8.13280 32184 ft 442 kts 341°
2026-05-05 11:31 61.21595 -8.15819 32174 ft 440 kts 340°
2026-05-05 11:32 61.27559 -8.18362 32177 ft 439 kts 340°
2026-05-05 11:32 61.33555 -8.20934 32178 ft 439 kts 340°
2026-05-05 11:33 61.39510 -8.23498 32176 ft 438 kts 340°
2026-05-05 11:33 61.45507 -8.26091 32176 ft 439 kts 340°
2026-05-05 11:34 61.51465 -8.28674 32176 ft 439 kts 340°
2026-05-05 11:34 61.57475 -8.31292 32173 ft 440 kts 340°
2026-05-05 11:35 61.63444 -8.33903 32174 ft 440 kts 340°
2026-05-05 11:35 61.69451 -8.36539 32201 ft 441 kts 340°
2026-05-05 11:36 61.75432 -8.39174 32180 ft 441 kts 340°
2026-05-05 11:36 61.81452 -8.41837 32263 ft 442 kts 340°
2026-05-05 11:36 61.84440 -8.43164 32501 ft 442 kts 340°
2026-05-05 11:37 61.87457 -8.44503 32775 ft 440 kts 341°
2026-05-05 11:37 61.90451 -8.45835 33046 ft 440 kts 341°
2026-05-05 11:37 61.93444 -8.47169 33292 ft 439 kts 341°
2026-05-05 11:37 61.96446 -8.48511 33524 ft 439 kts 341°
2026-05-05 11:38 61.99449 -8.49861 33698 ft 443 kts 342°
2026-05-05 11:38 62.02441 -8.51208 33859 ft 445 kts 342°
2026-05-05 11:38 62.05476 -8.52576 34094 ft 446 kts 342°
2026-05-05 11:39 62.11595 -8.55337 34166 ft 447 kts 342°
2026-05-05 11:39 62.17631 -8.58065 34165 ft 444 kts 342°
2026-05-05 11:40 62.23668 -8.60809 34170 ft 442 kts 342°
2026-05-05 11:40 62.29697 -8.63571 34175 ft 447 kts 342°
2026-05-05 11:41 62.35834 -8.66395 34169 ft 451 kts 342°
2026-05-05 11:41 62.41967 -8.69216 34171 ft 452 kts 342°
2026-05-05 11:42 62.48087 -8.72044 34158 ft 451 kts 342°
2026-05-05 11:42 62.54233 -8.74897 34153 ft 450 kts 342°
2026-05-05 11:43 62.60351 -8.77754 34167 ft 451 kts 343°
2026-05-05 11:43 62.66490 -8.80630 34162 ft 451 kts 343°
2026-05-05 11:44 62.72631 -8.83520 34158 ft 451 kts 343°
2026-05-05 11:44 62.78744 -8.86411 34158 ft 451 kts 343°
2026-05-05 11:45 62.84908 -8.89335 34158 ft 452 kts 343°
2026-05-05 11:45 62.91034 -8.92253 34166 ft 453 kts 343°
2026-05-05 11:46 62.97208 -8.95209 34159 ft 454 kts 343°
2026-05-05 11:46 63.03404 -8.98189 34155 ft 455 kts 343°
2026-05-05 11:47 63.09562 -9.01163 34153 ft 455 kts 343°
2026-05-05 11:47 63.15745 -9.04160 34194 ft 455 kts 343°
2026-05-05 11:48 63.25039 -9.08693 34157 ft 457 kts 343°
2026-05-05 11:48 63.31268 -9.11746 34153 ft 457 kts 343°
2026-05-05 11:49 63.37454 -9.14793 34147 ft 457 kts 343°
2026-05-05 11:49 63.43673 -9.17869 34149 ft 457 kts 343°
2026-05-05 11:50 63.49910 -9.20969 34157 ft 458 kts 344°
2026-05-05 11:50 63.56111 -9.24064 34149 ft 459 kts 344°
2026-05-05 11:51 63.62365 -9.27197 34144 ft 459 kts 344°
2026-05-05 11:51 63.68579 -9.30326 34145 ft 459 kts 344°
2026-05-05 11:52 63.74827 -9.33488 34172 ft 459 kts 344°
2026-05-05 11:52 63.81079 -9.36665 34148 ft 459 kts 344°
2026-05-05 11:53 63.87294 -9.39838 34145 ft 460 kts 344°
2026-05-05 11:53 63.93545 -9.43043 34144 ft 460 kts 344°
2026-05-05 11:54 63.99758 -9.46243 34145 ft 460 kts 344°
2026-05-05 11:54 64.06017 -9.49482 34156 ft 460 kts 344°
2026-05-05 11:55 64.12237 -9.52718 34146 ft 461 kts 344°
2026-05-05 11:55 64.18510 -9.55994 34139 ft 461 kts 344°
2026-05-05 11:56 64.24791 -9.59289 34140 ft 461 kts 344°
2026-05-05 11:56 64.31027 -9.62577 34138 ft 462 kts 344°
2026-05-05 11:57 64.37271 -9.65884 34131 ft 462 kts 344°
2026-05-05 11:57 64.43547 -9.69224 34127 ft 462 kts 344°
2026-05-05 11:58 64.49816 -9.72575 34128 ft 462 kts 344°
2026-05-05 11:58 64.56062 -9.75931 34130 ft 462 kts 344°
2026-05-05 11:59 64.62326 -9.79311 34127 ft 461 kts 344°
2026-05-05 11:59 64.68556 -9.82693 34140 ft 462 kts 345°
2026-05-05 12:00 64.74839 -9.86116 34132 ft 462 kts 344°
2026-05-05 12:00 64.81082 -9.89534 34128 ft 463 kts 344°
2026-05-05 12:01 64.87366 -9.92994 34126 ft 463 kts 344°
2026-05-05 12:01 64.93643 -9.96463 34122 ft 463 kts 344°
2026-05-05 12:02 64.99779 -10.01054 34133 ft 460 kts 335°
2026-05-05 12:02 65.05414 -10.08065 34124 ft 459 kts 326°
2026-05-05 12:03 65.10769 -10.16350 34124 ft 459 kts 326°
2026-05-05 12:03 65.16075 -10.24694 34120 ft 459 kts 326°
2026-05-05 12:04 65.21429 -10.33089 34131 ft 459 kts 326°
2026-05-05 12:04 65.26750 -10.41423 34142 ft 460 kts 326°
2026-05-05 12:05 65.32112 -10.49846 34131 ft 461 kts 326°
2026-05-05 12:05 65.37447 -10.58269 34133 ft 461 kts 326°
2026-05-05 12:06 65.42820 -10.66794 34133 ft 461 kts 326°
2026-05-05 12:06 65.48145 -10.75291 34134 ft 461 kts 326°
2026-05-05 12:07 65.53507 -10.83885 34145 ft 461 kts 326°
2026-05-05 12:07 65.58820 -10.92444 34135 ft 462 kts 326°
2026-05-05 12:08 65.64174 -11.01112 34143 ft 462 kts 326°
2026-05-05 12:08 65.69488 -11.09756 34147 ft 461 kts 326°
2026-05-05 12:09 65.74823 -11.18482 34138 ft 461 kts 325°
2026-05-05 12:09 65.80154 -11.27247 34137 ft 461 kts 325°
2026-05-05 12:10 65.85450 -11.35997 34145 ft 461 kts 326°
2026-05-05 12:10 65.90766 -11.44826 34147 ft 461 kts 325°
2026-05-05 12:11 65.96053 -11.53648 34164 ft 462 kts 325°
2026-05-05 12:11 66.01371 -11.62569 34162 ft 462 kts 325°
2026-05-05 12:12 66.06657 -11.71481 34148 ft 462 kts 325°
2026-05-05 12:12 66.11963 -11.80476 34147 ft 462 kts 325°
2026-05-05 12:13 66.16369 -11.87982 34160 ft 462 kts 325°
2026-05-05 12:13 66.22527 -11.98523 34169 ft 462 kts 325°
2026-05-05 12:14 66.26926 -12.06091 34168 ft 462 kts 325°
2026-05-05 12:14 66.32224 -12.15250 34164 ft 462 kts 325°
2026-05-05 12:15 66.37476 -12.24379 34167 ft 462 kts 325°
2026-05-05 12:15 66.42746 -12.33587 34179 ft 462 kts 325°
2026-05-05 12:16 66.47986 -12.42790 34174 ft 462 kts 325°
2026-05-05 12:16 66.53258 -12.52097 34173 ft 462 kts 325°
2026-05-05 12:17 66.58495 -12.61392 34180 ft 462 kts 325°
2026-05-05 12:17 66.63722 -12.70717 34180 ft 461 kts 325°
2026-05-05 12:18 66.68962 -12.80114 34195 ft 462 kts 325°
2026-05-05 12:18 66.74185 -12.89536 34202 ft 462 kts 325°
2026-05-05 12:19 66.79422 -12.99029 34200 ft 462 kts 325°
2026-05-05 12:19 66.84632 -13.08526 34193 ft 463 kts 325°
2026-05-05 12:20 66.89873 -13.18131 34198 ft 463 kts 324°
2026-05-05 12:20 66.95067 -13.27697 34204 ft 462 kts 324°
2026-05-05 12:21 67.00285 -13.37362 34207 ft 462 kts 324°
2026-05-05 12:21 67.05481 -13.47036 34201 ft 463 kts 324°
2026-05-05 12:22 67.10700 -13.56809 34222 ft 464 kts 324°
2026-05-05 12:22 67.15897 -13.66593 34223 ft 464 kts 324°
2026-05-05 12:23 67.21114 -13.76469 34223 ft 465 kts 324°
2026-05-05 12:23 67.26320 -13.86383 34213 ft 463 kts 324°
2026-05-05 12:24 67.31471 -13.96245 34235 ft 462 kts 324°
2026-05-05 12:24 67.36640 -14.06189 34235 ft 461 kts 324°
2026-05-05 12:25 67.41798 -14.16168 34226 ft 462 kts 324°
2026-05-05 12:25 67.46931 -14.26158 34244 ft 463 kts 324°
2026-05-05 12:26 67.52090 -14.36251 34247 ft 463 kts 324°
2026-05-05 12:26 67.57220 -14.46346 34247 ft 464 kts 324°
2026-05-05 12:27 67.62381 -14.56558 34232 ft 463 kts 324°
2026-05-05 12:27 67.67509 -14.66762 34233 ft 464 kts 323°
2026-05-05 12:28 67.72653 -14.77055 34269 ft 463 kts 324°
2026-05-05 12:28 67.77761 -14.87334 34249 ft 463 kts 323°
2026-05-05 12:29 67.82906 -14.97741 34246 ft 464 kts 323°
2026-05-05 12:29 67.87999 -15.08106 34246 ft 464 kts 324°
2026-05-05 12:30 67.93138 -15.18623 34280 ft 466 kts 323°
2026-05-05 12:30 67.98245 -15.29141 34274 ft 466 kts 324°
2026-05-05 12:31 68.03367 -15.39740 34278 ft 464 kts 323°
2026-05-05 12:31 68.08473 -15.50369 34285 ft 464 kts 323°
2026-05-05 12:32 68.13529 -15.60963 34284 ft 462 kts 323°
2026-05-05 12:32 68.18613 -15.71670 34293 ft 463 kts 323°
2026-05-05 12:33 68.23687 -15.82419 34298 ft 464 kts 323°
2026-05-05 12:33 68.28740 -15.93189 34292 ft 465 kts 323°
2026-05-05 12:34 68.33827 -16.04100 34312 ft 465 kts 323°
2026-05-05 12:34 68.38882 -16.14992 34311 ft 464 kts 323°
2026-05-05 12:35 68.43915 -16.25909 34317 ft 465 kts 323°
2026-05-05 12:35 68.48985 -16.36969 34317 ft 465 kts 323°
2026-05-05 12:36 68.54008 -16.47987 34316 ft 466 kts 323°
2026-05-05 12:36 68.59061 -16.59148 34329 ft 466 kts 323°
2026-05-05 12:37 68.64099 -16.70334 34346 ft 465 kts 323°
2026-05-05 12:37 68.69142 -16.81592 34343 ft 466 kts 322°
2026-05-05 12:38 68.74152 -16.92858 34346 ft 467 kts 322°
2026-05-05 12:38 68.79188 -17.04235 34333 ft 467 kts 322°
2026-05-05 12:39 68.84211 -17.15680 34358 ft 466 kts 323°
2026-05-05 12:39 68.89184 -17.27048 34360 ft 464 kts 322°
2026-05-05 12:40 68.94153 -17.38482 34381 ft 465 kts 322°
2026-05-05 12:40 68.99127 -17.50010 34370 ft 465 kts 322°
2026-05-05 12:41 69.04122 -17.61629 34381 ft 468 kts 322°
2026-05-05 12:41 69.09123 -17.73361 34394 ft 469 kts 322°
2026-05-05 12:42 69.14088 -17.85088 34390 ft 468 kts 322°
2026-05-05 12:42 69.19070 -17.96913 34406 ft 468 kts 322°
2026-05-05 12:43 69.24040 -18.08790 34405 ft 466 kts 321°
2026-05-05 12:43 69.28956 -18.20599 34413 ft 467 kts 322°
2026-05-05 12:44 69.33908 -18.32574 34422 ft 469 kts 321°
2026-05-05 12:44 69.38871 -18.44663 34430 ft 470 kts 322°
2026-05-05 12:45 69.43838 -18.56827 34434 ft 471 kts 322°
2026-05-05 12:45 69.48758 -18.68951 34443 ft 470 kts 322°
2026-05-05 12:46 69.53705 -18.81217 34441 ft 468 kts 320°
2026-05-05 12:46 69.58586 -18.93405 34451 ft 468 kts 321°
2026-05-05 12:47 69.63484 -19.05714 34459 ft 467 kts 321°
2026-05-05 12:47 69.68389 -19.18123 34460 ft 469 kts 320°
2026-05-05 12:48 69.73257 -19.30502 34479 ft 470 kts 321°
2026-05-05 12:48 69.78168 -19.43081 34475 ft 469 kts 321°
2026-05-05 12:49 69.83027 -19.55600 34489 ft 470 kts 321°
2026-05-05 12:49 69.87918 -19.68280 34505 ft 470 kts 321°
2026-05-05 12:50 69.92770 -19.80953 34494 ft 471 kts 320°
2026-05-05 12:50 69.97658 -19.93797 34498 ft 472 kts 320°
2026-05-05 12:51 70.02380 -20.07133 34514 ft 472 kts 315°
2026-05-05 12:51 70.06759 -20.21434 34508 ft 473 kts 314°
2026-05-05 12:52 70.11097 -20.35950 34534 ft 473 kts 315°
2026-05-05 12:52 70.15455 -20.50473 34543 ft 473 kts 315°
2026-05-05 12:53 70.19798 -20.64913 34527 ft 472 kts 315°
2026-05-05 12:53 70.24129 -20.79387 34514 ft 472 kts 313°
2026-05-05 12:54 70.30629 -21.01275 34539 ft 472 kts 314°
2026-05-05 12:55 70.34965 -21.16013 34531 ft 472 kts 313°
2026-05-05 12:55 70.39282 -21.30791 34547 ft 473 kts 313°
2026-05-05 12:56 70.43577 -21.45603 34550 ft 475 kts 313°
2026-05-05 12:56 70.47897 -21.60607 34556 ft 476 kts 313°
2026-05-05 12:57 70.52191 -21.75624 34566 ft 477 kts 313°
2026-05-05 12:57 70.56495 -21.90781 34569 ft 477 kts 312°
2026-05-05 12:58 70.60071 -22.03461 34551 ft 477 kts 312°
2026-05-05 12:58 70.64357 -22.18766 34570 ft 477 kts 312°
2026-05-05 12:59 70.68625 -22.34117 34571 ft 477 kts 311°
2026-05-05 12:59 70.72863 -22.49460 34578 ft 477 kts 311°
2026-05-05 13:00 70.79227 -22.72711 34589 ft 476 kts 311°
2026-05-05 13:01 70.87633 -23.03827 34588 ft 476 kts 311°
2026-05-05 13:01 70.91796 -23.19413 34593 ft 476 kts 311°
2026-05-05 13:02 70.95965 -23.35131 34596 ft 477 kts 310°
2026-05-05 13:02 71.00143 -23.51005 34599 ft 477 kts 310°
2026-05-05 13:03 71.04305 -23.66932 34598 ft 477 kts 310°
2026-05-05 13:03 71.08426 -23.82821 34598 ft 477 kts 310°
2026-05-05 13:04 71.12560 -23.98883 34589 ft 477 kts 310°
2026-05-05 13:04 71.16691 -24.15054 34594 ft 478 kts 310°
2026-05-05 13:05 71.20780 -24.31184 34591 ft 478 kts 310°
2026-05-05 13:05 71.24880 -24.47478 34590 ft 478 kts 309°
2026-05-05 13:06 71.28946 -24.63765 34589 ft 478 kts 309°
2026-05-05 13:06 71.33002 -24.80132 34591 ft 478 kts 309°
2026-05-05 13:07 71.37059 -24.96632 34584 ft 478 kts 309°
2026-05-05 13:07 71.41100 -25.13203 34593 ft 478 kts 309°
2026-05-05 13:08 71.45117 -25.29788 34586 ft 480 kts 309°
2026-05-05 13:08 71.49144 -25.46556 34589 ft 479 kts 309°
2026-05-05 13:09 71.53128 -25.63282 34604 ft 479 kts 308°
2026-05-05 13:09 71.57125 -25.80180 34585 ft 479 kts 308°
2026-05-05 13:10 71.61099 -25.97122 34608 ft 479 kts 308°
2026-05-05 13:10 71.65042 -26.14061 34618 ft 479 kts 308°
2026-05-05 13:11 71.68998 -26.31197 34618 ft 480 kts 308°
2026-05-05 13:11 71.72908 -26.48268 34633 ft 479 kts 308°
2026-05-05 13:12 71.76820 -26.65492 34630 ft 478 kts 307°
2026-05-05 13:12 71.80688 -26.82660 34631 ft 477 kts 307°
2026-05-05 13:13 71.84560 -26.99978 34645 ft 477 kts 307°
2026-05-05 13:13 71.88407 -27.17327 34629 ft 477 kts 307°
2026-05-05 13:14 71.92259 -27.34840 34632 ft 478 kts 307°
2026-05-05 13:14 71.96064 -27.52280 34635 ft 478 kts 307°
2026-05-05 13:15 71.99866 -27.69854 34654 ft 478 kts 307°
2026-05-05 13:15 72.03672 -27.87592 34633 ft 478 kts 306°
2026-05-05 13:16 72.07429 -28.05248 34638 ft 478 kts 306°
2026-05-05 13:16 72.11201 -28.23123 34657 ft 478 kts 306°
2026-05-05 13:17 72.14952 -28.41056 34657 ft 478 kts 306°
2026-05-05 13:17 72.18665 -28.58952 34677 ft 477 kts 306°
2026-05-05 13:18 72.22376 -28.76983 34674 ft 475 kts 306°
2026-05-05 13:18 72.26029 -28.94892 34684 ft 474 kts 306°
2026-05-05 13:19 72.29669 -29.12887 34693 ft 472 kts 306°
2026-05-05 13:19 72.33272 -29.30859 34690 ft 471 kts 306°
2026-05-05 13:20 72.36877 -29.48978 34703 ft 471 kts 305°
2026-05-05 13:20 72.40449 -29.67091 34725 ft 472 kts 306°
2026-05-05 13:21 72.44024 -29.85381 34716 ft 473 kts 305°
2026-05-05 13:21 72.47564 -30.03638 34714 ft 473 kts 306°
2026-05-05 13:22 72.51117 -30.22114 34720 ft 473 kts 305°
2026-05-05 13:22 72.54638 -30.40607 34711 ft 473 kts 305°
2026-05-05 13:23 72.58123 -30.59068 34695 ft 473 kts 304°
2026-05-05 13:23 72.61620 -30.77744 34679 ft 473 kts 304°
2026-05-05 13:24 72.65092 -30.96478 34706 ft 471 kts 304°
2026-05-05 13:24 72.68512 -31.15075 34693 ft 470 kts 303°
2026-05-05 13:25 72.71929 -31.33825 34698 ft 469 kts 304°
2026-05-05 13:25 72.75303 -31.52507 34713 ft 467 kts 304°
2026-05-05 13:26 72.78675 -31.71331 34715 ft 468 kts 303°
2026-05-05 13:26 72.82012 -31.90158 34719 ft 469 kts 303°
2026-05-05 13:27 72.85366 -32.09212 34714 ft 470 kts 302°
2026-05-05 13:27 72.88683 -32.28250 34728 ft 472 kts 302°
2026-05-05 13:28 72.92019 -32.47587 34732 ft 473 kts 302°
2026-05-05 13:28 72.95342 -32.67021 34729 ft 473 kts 302°
2026-05-05 13:29 72.98620 -32.86359 34725 ft 473 kts 302°
2026-05-05 13:29 73.01890 -33.05852 34727 ft 471 kts 302°
2026-05-05 13:30 73.05119 -33.25263 34723 ft 470 kts 302°
2026-05-05 13:30 73.08318 -33.44679 34724 ft 468 kts 301°
2026-05-05 13:31 73.11511 -33.64245 34722 ft 467 kts 301°
2026-05-05 13:31 73.14677 -33.83845 34726 ft 467 kts 301°
2026-05-05 13:32 73.17806 -34.03389 34741 ft 468 kts 300°
2026-05-05 13:32 73.20946 -34.23186 34741 ft 469 kts 300°
2026-05-05 13:33 73.24047 -34.42926 34742 ft 470 kts 300°
2026-05-05 13:33 73.27162 -34.62951 34751 ft 471 kts 300°
2026-05-05 13:34 73.30242 -34.82953 34735 ft 471 kts 300°
2026-05-05 13:34 73.33313 -35.03095 34765 ft 471 kts 299°
2026-05-05 13:35 73.36353 -35.23225 34763 ft 471 kts 299°
2026-05-05 13:35 73.39390 -35.43545 34763 ft 471 kts 299°
2026-05-05 13:36 73.42395 -35.63849 34755 ft 471 kts 299°
2026-05-05 13:36 73.45394 -35.84313 34773 ft 470 kts 299°
2026-05-05 13:37 73.48347 -36.04679 34782 ft 470 kts 298°
2026-05-05 13:37 73.51305 -36.25286 34787 ft 470 kts 298°
2026-05-05 13:38 73.54221 -36.45806 34789 ft 470 kts 298°
2026-05-05 13:38 73.57117 -36.66402 34789 ft 470 kts 298°
2026-05-05 13:39 73.60008 -36.87179 34790 ft 470 kts 297°
2026-05-05 13:39 73.62879 -37.08030 34797 ft 470 kts 297°
2026-05-05 13:40 73.65713 -37.28832 34786 ft 470 kts 297°
2026-05-05 13:40 73.68542 -37.49818 34795 ft 469 kts 297°
2026-05-05 13:41 73.71345 -37.70832 34782 ft 469 kts 296°
2026-05-05 13:41 73.74105 -37.91754 34782 ft 469 kts 296°
2026-05-05 13:42 73.76868 -38.12917 34789 ft 469 kts 296°
2026-05-05 13:42 73.79586 -38.33971 34780 ft 467 kts 296°
2026-05-05 13:43 73.82290 -38.55152 34780 ft 465 kts 296°
2026-05-05 13:43 73.84961 -38.76305 34781 ft 463 kts 295°
2026-05-05 13:44 73.87584 -38.97300 34771 ft 462 kts 295°
2026-05-05 13:44 73.90200 -39.18473 34769 ft 461 kts 295°
2026-05-05 13:45 73.92778 -39.39576 34775 ft 461 kts 295°
2026-05-05 13:45 73.95349 -39.60860 34778 ft 462 kts 295°
2026-05-05 13:46 73.97479 -39.78665 34774 ft 463 kts 294°
2026-05-05 13:46 74.00026 -40.00165 34755 ft 464 kts 294°
2026-05-05 13:47 74.02339 -40.21950 34762 ft 464 kts 290°
2026-05-05 13:47 74.04464 -40.44035 34759 ft 465 kts 290°
2026-05-05 13:48 74.06591 -40.66317 34762 ft 465 kts 290°
2026-05-05 13:48 74.08716 -40.88492 34759 ft 465 kts 290°
2026-05-05 13:49 74.10829 -41.10667 34747 ft 463 kts 290°
2026-05-05 13:49 74.12920 -41.32893 34747 ft 461 kts 290°
2026-05-05 13:50 74.14981 -41.55096 34743 ft 459 kts 290°
2026-05-05 13:50 74.16997 -41.77118 34746 ft 458 kts 289°
2026-05-05 13:51 74.19000 -41.99291 34748 ft 457 kts 289°
2026-05-05 13:51 74.20966 -42.21363 34749 ft 457 kts 289°
2026-05-05 13:52 74.22922 -42.43636 34749 ft 458 kts 289°
2026-05-05 13:52 74.24858 -42.65987 34749 ft 459 kts 289°
2026-05-05 13:53 74.26768 -42.88362 34752 ft 459 kts 288°
2026-05-05 13:53 74.28672 -43.10983 34749 ft 460 kts 288°
2026-05-05 13:54 74.30537 -43.33482 34747 ft 460 kts 288°
2026-05-05 13:54 74.32394 -43.56205 34722 ft 460 kts 288°
2026-05-05 13:55 74.34209 -43.78730 34739 ft 457 kts 288°
2026-05-05 13:55 74.35991 -44.01239 34743 ft 454 kts 288°
2026-05-05 13:56 74.37749 -44.23749 34742 ft 452 kts 288°
2026-05-05 13:56 74.39471 -44.46120 34745 ft 451 kts 287°
2026-05-05 13:57 74.41169 -44.68532 34745 ft 450 kts 287°
2026-05-05 13:57 74.42838 -44.90907 34747 ft 450 kts 287°
2026-05-05 13:58 74.44494 -45.13470 34747 ft 451 kts 287°
2026-05-05 13:58 74.46132 -45.36144 34741 ft 453 kts 286°
2026-05-05 13:59 74.48542 -45.70187 34741 ft 454 kts 286°
2026-05-05 14:00 74.50912 -46.04529 34742 ft 454 kts 285°
2026-05-05 14:00 74.52454 -46.27335 34734 ft 454 kts 285°
2026-05-05 14:01 74.53975 -46.50252 34727 ft 451 kts 285°
2026-05-05 14:01 74.55464 -46.73063 34729 ft 448 kts 285°
2026-05-05 14:02 74.56914 -46.95676 34732 ft 446 kts 285°
2026-05-05 14:02 74.58340 -47.18303 34737 ft 444 kts 285°
2026-05-05 14:03 74.59741 -47.40935 34749 ft 444 kts 284°
2026-05-05 14:03 74.61114 -47.63522 34731 ft 445 kts 284°
2026-05-05 14:04 74.62477 -47.86366 34734 ft 446 kts 284°
2026-05-05 14:04 74.63811 -48.09154 34735 ft 448 kts 284°
2026-05-05 14:05 74.65132 -48.32167 34727 ft 449 kts 283°
2026-05-05 14:05 74.66427 -48.55179 34729 ft 449 kts 283°
2026-05-05 14:06 74.67706 -48.78366 34734 ft 449 kts 283°
2026-05-05 14:06 74.68960 -49.01574 34721 ft 449 kts 283°
2026-05-05 14:07 74.70181 -49.24636 34721 ft 449 kts 282°
2026-05-05 14:07 74.71379 -49.47753 34718 ft 448 kts 282°
2026-05-05 14:08 74.72558 -49.70981 34718 ft 447 kts 282°
2026-05-05 14:08 74.73712 -49.94234 34707 ft 447 kts 282°
2026-05-05 14:09 74.74833 -50.17345 34709 ft 447 kts 282°
2026-05-05 14:09 74.75937 -50.40634 34710 ft 447 kts 281°
2026-05-05 14:10 74.77011 -50.63805 34703 ft 447 kts 281°
2026-05-05 14:10 74.78069 -50.87182 34699 ft 448 kts 281°
2026-05-05 14:11 74.79103 -51.10610 34687 ft 448 kts 281°
2026-05-05 14:11 74.80107 -51.33924 34690 ft 448 kts 280°
2026-05-05 14:12 74.81095 -51.57459 34689 ft 448 kts 280°
2026-05-05 14:12 74.82053 -51.80903 34678 ft 448 kts 280°
2026-05-05 14:13 74.82983 -52.04264 34655 ft 446 kts 280°
2026-05-05 14:13 74.83889 -52.27688 34658 ft 444 kts 279°
2026-05-05 14:14 74.84767 -52.51042 34665 ft 442 kts 279°
2026-05-05 14:14 74.85615 -52.74210 34662 ft 440 kts 279°
2026-05-05 14:15 74.86439 -52.97408 34665 ft 440 kts 279°
2026-05-05 14:15 74.87236 -53.20513 34689 ft 440 kts 279°
2026-05-05 14:16 74.88015 -53.43806 34693 ft 441 kts 278°
2026-05-05 14:16 74.88768 -53.67058 34694 ft 442 kts 278°
2026-05-05 14:17 74.89502 -53.90519 34692 ft 442 kts 278°
2026-05-05 14:17 74.90206 -54.13873 34694 ft 443 kts 278°
2026-05-05 14:18 74.90893 -54.37391 34653 ft 443 kts 277°
2026-05-05 14:18 74.91556 -54.60956 34649 ft 443 kts 277°
2026-05-05 14:19 74.92190 -54.84358 34648 ft 441 kts 277°
2026-05-05 14:19 74.92800 -55.07823 34622 ft 438 kts 277°
2026-05-05 14:20 74.93378 -55.30929 34598 ft 435 kts 276°
2026-05-05 14:20 74.93934 -55.54138 34588 ft 433 kts 276°
2026-05-05 14:21 74.94460 -55.77075 34573 ft 432 kts 276°
2026-05-05 14:21 74.94966 -56.00176 34581 ft 433 kts 276°
2026-05-05 14:22 74.95449 -56.23308 34575 ft 434 kts 276°
2026-05-05 14:22 74.95911 -56.46556 34564 ft 435 kts 275°
2026-05-05 14:23 74.96347 -56.69710 34532 ft 436 kts 275°
2026-05-05 14:23 74.96764 -56.93162 34540 ft 437 kts 275°
2026-05-05 14:24 74.97155 -57.16509 34521 ft 438 kts 274°
2026-05-05 14:24 74.97525 -57.39989 34529 ft 438 kts 274°
2026-05-05 14:25 74.97868 -57.63356 34511 ft 438 kts 274°
2026-05-05 14:25 74.98188 -57.86742 34498 ft 434 kts 274°
2026-05-05 14:26 74.98480 -58.09849 34507 ft 431 kts 273°
2026-05-05 14:26 74.98749 -58.32938 34509 ft 429 kts 273°
2026-05-05 14:27 74.98994 -58.55962 34512 ft 428 kts 273°
2026-05-05 14:27 74.99214 -58.78805 34513 ft 428 kts 272°
2026-05-05 14:28 74.99413 -59.01818 34519 ft 429 kts 272°
2026-05-05 14:28 74.99587 -59.24782 34519 ft 430 kts 272°
2026-05-05 14:29 74.99741 -59.47899 34519 ft 431 kts 272°
2026-05-05 14:29 74.99871 -59.71117 34518 ft 432 kts 272°
2026-05-05 14:30 74.99981 -59.94231 34518 ft 432 kts 271°
2026-05-05 14:30 75.00134 -60.17470 34527 ft 432 kts 272°
2026-05-05 14:31 75.00373 -60.40600 34520 ft 433 kts 272°
2026-05-05 14:31 75.00595 -60.63868 34481 ft 432 kts 272°
2026-05-05 14:32 75.00779 -60.86964 34510 ft 431 kts 271°
2026-05-05 14:32 75.00909 -61.06258 34519 ft 430 kts 271°
2026-05-05 14:33 75.01040 -61.29275 34522 ft 430 kts 271°
2026-05-05 14:33 75.01149 -61.52404 34525 ft 430 kts 271°
2026-05-05 14:34 75.01235 -61.75500 34526 ft 429 kts 270°
2026-05-05 14:34 75.01297 -61.98520 34533 ft 430 kts 270°
2026-05-05 14:35 75.01336 -62.21682 34527 ft 431 kts 270°
2026-05-05 14:35 75.01352 -62.44815 34529 ft 431 kts 270°
2026-05-05 14:36 75.01345 -62.68039 34529 ft 432 kts 269°
2026-05-05 14:36 75.01314 -62.91261 34531 ft 432 kts 269°
2026-05-05 14:37 75.01260 -63.14394 34531 ft 432 kts 269°
2026-05-05 14:37 75.01182 -63.37673 34549 ft 432 kts 269°
2026-05-05 14:38 75.01081 -63.60811 34540 ft 432 kts 268°
2026-05-05 14:38 75.00957 -63.83944 34531 ft 433 kts 268°
2026-05-05 14:39 75.00808 -64.07264 34538 ft 434 kts 268°
2026-05-05 14:39 75.00636 -64.30491 34540 ft 435 kts 267°
2026-05-05 14:40 75.00438 -64.53916 34541 ft 436 kts 267°
2026-05-05 14:40 75.00217 -64.77349 34541 ft 436 kts 267°
2026-05-05 14:41 74.99973 -65.00663 34558 ft 436 kts 266°
2026-05-05 14:41 74.99703 -65.24108 34544 ft 436 kts 266°
2026-05-05 14:42 74.99411 -65.47426 34544 ft 436 kts 266°
2026-05-05 14:42 74.99093 -65.70882 34545 ft 436 kts 266°
2026-05-05 14:43 74.98755 -65.94107 34549 ft 436 kts 265°
2026-05-05 14:43 74.98391 -66.17500 34550 ft 436 kts 265°
2026-05-05 14:44 74.98001 -66.40867 34553 ft 436 kts 265°
2026-05-05 14:44 74.97592 -66.64080 34573 ft 436 kts 265°
2026-05-05 14:45 74.97155 -66.87454 34543 ft 437 kts 264°
2026-05-05 14:45 74.96696 -67.10776 34558 ft 439 kts 264°
2026-05-05 14:46 74.96207 -67.34343 34557 ft 441 kts 264°
2026-05-05 14:46 74.95694 -67.57843 34555 ft 443 kts 263°
2026-05-05 14:47 74.95153 -67.81533 34553 ft 443 kts 263°
2026-05-05 14:47 74.94593 -68.05027 34555 ft 443 kts 263°
2026-05-05 14:48 74.94004 -68.28680 34566 ft 443 kts 263°
2026-05-05 14:48 74.93394 -68.52097 34563 ft 442 kts 262°
2026-05-05 14:49 74.92757 -68.75664 34552 ft 441 kts 262°
2026-05-05 14:49 74.92103 -68.98944 34560 ft 440 kts 262°
2026-05-05 14:50 74.91421 -69.22342 34562 ft 440 kts 262°
2026-05-05 14:50 74.90716 -69.45681 34564 ft 439 kts 262°
2026-05-05 14:51 74.89993 -69.68844 34564 ft 439 kts 262°
2026-05-05 14:51 74.89240 -69.92177 34552 ft 441 kts 261°
2026-05-05 14:52 74.88459 -70.15567 34571 ft 444 kts 261°
2026-05-05 14:52 74.87654 -70.38960 34571 ft 447 kts 260°
2026-05-05 14:53 74.86815 -70.62622 34564 ft 449 kts 260°
2026-05-05 14:53 74.85948 -70.86338 34563 ft 450 kts 260°
2026-05-05 14:54 74.85054 -71.10098 34563 ft 449 kts 259°
2026-05-05 14:54 74.84146 -71.33563 34565 ft 448 kts 259°
2026-05-05 14:55 74.83209 -71.57098 34567 ft 447 kts 259°
2026-05-05 14:55 74.82257 -71.80382 34565 ft 445 kts 259°
2026-05-05 14:56 74.81275 -72.03778 34562 ft 444 kts 259°
2026-05-05 14:56 74.80283 -72.26894 34561 ft 444 kts 258°
2026-05-05 14:57 74.79245 -72.50133 34562 ft 443 kts 257°
2026-05-05 14:57 74.77540 -72.72479 34570 ft 441 kts 250°
2026-05-05 14:58 74.75579 -72.94713 34586 ft 444 kts 250°
2026-05-05 14:58 74.73619 -73.16957 34572 ft 447 kts 250°
2026-05-05 14:59 74.71624 -73.39437 34564 ft 450 kts 250°
2026-05-05 14:59 74.69614 -73.61810 34559 ft 451 kts 249°
2026-05-05 15:00 74.67912 -73.80531 34558 ft 451 kts 249°
2026-05-05 15:00 74.65514 -74.06536 34559 ft 450 kts 249°
2026-05-05 15:01 74.63432 -74.28796 34549 ft 449 kts 249°
2026-05-05 15:01 74.61342 -74.50841 34549 ft 447 kts 249°
2026-05-05 15:02 74.59224 -74.72886 34548 ft 447 kts 248°
2026-05-05 15:02 74.57104 -74.94682 34550 ft 446 kts 248°
2026-05-05 15:03 74.54947 -75.16570 34536 ft 447 kts 248°
2026-05-05 15:03 74.52760 -75.38488 34552 ft 449 kts 248°
2026-05-05 15:04 74.50556 -75.60290 34552 ft 451 kts 247°
2026-05-05 15:04 74.48307 -75.82278 34549 ft 452 kts 247°
2026-05-05 15:05 74.44880 -76.15252 34801 ft 455 kts 247°
2026-05-05 15:05 74.43733 -76.26161 35067 ft 455 kts 247°
2026-05-05 15:06 74.42568 -76.37166 35286 ft 457 kts 247°
2026-05-05 15:06 74.41394 -76.48198 35429 ft 459 kts 247°
2026-05-05 15:06 74.40206 -76.59283 35571 ft 462 kts 246°
2026-05-05 15:06 74.39009 -76.70380 35744 ft 463 kts 246°
2026-05-05 15:07 74.37807 -76.81454 35991 ft 462 kts 246°
2026-05-05 15:07 74.36613 -76.92398 36236 ft 462 kts 246°
2026-05-05 15:07 74.35395 -77.03496 36421 ft 463 kts 246°
2026-05-05 15:08 74.32945 -77.25611 36507 ft 459 kts 246°
2026-05-05 15:08 74.30528 -77.47172 36521 ft 454 kts 246°
2026-05-05 15:09 74.28094 -77.68620 36522 ft 452 kts 246°
2026-05-05 15:09 74.25645 -77.89953 36526 ft 451 kts 245°
2026-05-05 15:10 74.23187 -78.11127 36514 ft 451 kts 245°
2026-05-05 15:10 74.20709 -78.32231 36513 ft 452 kts 245°
2026-05-05 15:11 74.18189 -78.53447 36499 ft 452 kts 245°
2026-05-05 15:11 74.15661 -78.74496 36493 ft 453 kts 245°
2026-05-05 15:12 74.13091 -78.95665 36491 ft 454 kts 245°
2026-05-05 15:12 74.10519 -79.16611 36493 ft 455 kts 244°
2026-05-05 15:13 74.07906 -79.37665 36475 ft 456 kts 244°
2026-05-05 15:13 74.05264 -79.58716 36482 ft 456 kts 244°
2026-05-05 15:14 74.02619 -79.79582 36477 ft 457 kts 244°
2026-05-05 15:14 73.99936 -80.00520 36481 ft 457 kts 243°
2026-05-05 15:15 73.97095 -80.21179 36465 ft 457 kts 241°
2026-05-05 15:15 73.94169 -80.41473 36466 ft 457 kts 241°
2026-05-05 15:16 73.91212 -80.61845 36466 ft 457 kts 241°
2026-05-05 15:16 73.88280 -80.81991 36471 ft 456 kts 241°
2026-05-05 15:17 73.85325 -81.02161 36456 ft 454 kts 241°
2026-05-05 15:17 73.82381 -81.22063 36440 ft 453 kts 240°
2026-05-05 15:18 73.79402 -81.42002 36468 ft 453 kts 240°
2026-05-05 15:18 73.76415 -81.61798 36458 ft 455 kts 240°
2026-05-05 15:19 73.73379 -81.81718 36459 ft 457 kts 240°
2026-05-05 15:19 73.70309 -82.01666 36461 ft 459 kts 240°
2026-05-05 15:20 73.67230 -82.21483 36450 ft 460 kts 240°
2026-05-05 15:20 73.64632 -82.38055 36434 ft 461 kts 239°
2026-05-05 15:21 73.60983 -82.61110 36440 ft 460 kts 239°
2026-05-05 15:21 73.58357 -82.77539 36422 ft 460 kts 239°
2026-05-05 15:22 73.55205 -82.97093 36425 ft 458 kts 239°
2026-05-05 15:22 73.52022 -83.16653 36405 ft 458 kts 239°
2026-05-05 15:23 73.48851 -83.35955 36422 ft 458 kts 238°
2026-05-05 15:23 73.45632 -83.55367 36417 ft 458 kts 238°
2026-05-05 15:24 73.42415 -83.74584 36423 ft 459 kts 238°
2026-05-05 15:24 73.39152 -83.93901 36420 ft 460 kts 238°
2026-05-05 15:25 73.35893 -84.13018 36418 ft 460 kts 238°
2026-05-05 15:25 73.32590 -84.32210 36419 ft 460 kts 238°
2026-05-05 15:26 73.29290 -84.51213 36416 ft 460 kts 238°
2026-05-05 15:26 73.25955 -84.70248 36420 ft 460 kts 237°
2026-05-05 15:27 73.22632 -84.89040 36405 ft 460 kts 237°
2026-05-05 15:27 73.19261 -85.07930 36428 ft 461 kts 237°
2026-05-05 15:28 73.15872 -85.26756 36411 ft 461 kts 237°
2026-05-05 15:28 73.12481 -85.45425 36415 ft 461 kts 237°
2026-05-05 15:29 73.09055 -85.64120 36414 ft 462 kts 237°
2026-05-05 15:29 73.05628 -85.82651 36415 ft 462 kts 236°
2026-05-05 15:30 73.02156 -86.01261 36414 ft 462 kts 236°
2026-05-05 15:30 72.98676 -86.19756 36413 ft 462 kts 236°
2026-05-05 15:31 72.95198 -86.38074 36423 ft 462 kts 236°
2026-05-05 15:31 72.91686 -86.56417 36397 ft 462 kts 236°
2026-05-05 15:32 72.88165 -86.74641 36409 ft 463 kts 236°
2026-05-05 15:32 72.84608 -86.92903 36407 ft 463 kts 236°
2026-05-05 15:33 72.81041 -87.11053 36406 ft 464 kts 235°
2026-05-05 15:33 72.77436 -87.29240 36400 ft 464 kts 235°
2026-05-05 15:34 72.73843 -87.47217 36404 ft 464 kts 235°
2026-05-05 15:34 72.70205 -87.65258 36410 ft 465 kts 235°
2026-05-05 15:35 72.66574 -87.83116 36400 ft 465 kts 234°
2026-05-05 15:35 72.62903 -88.01019 36400 ft 465 kts 234°
2026-05-05 15:36 72.59234 -88.18761 36381 ft 465 kts 234°
2026-05-05 15:36 72.55536 -88.36498 36391 ft 465 kts 234°
2026-05-05 15:37 72.51839 -88.54083 36388 ft 465 kts 234°
2026-05-05 15:37 72.48100 -88.71717 36389 ft 466 kts 234°
2026-05-05 15:38 72.44347 -88.89273 36393 ft 466 kts 234°
2026-05-05 15:38 72.40589 -89.06711 36388 ft 466 kts 233°
2026-05-05 15:39 72.36821 -89.24051 36386 ft 467 kts 233°
2026-05-05 15:39 72.33007 -89.41460 36386 ft 467 kts 233°
2026-05-05 15:40 72.29210 -89.58646 36388 ft 467 kts 233°
2026-05-05 15:40 72.25376 -89.75866 36382 ft 467 kts 233°
2026-05-05 15:41 72.21530 -89.93001 36377 ft 467 kts 233°
2026-05-05 15:41 72.17659 -90.10104 36386 ft 467 kts 233°
2026-05-05 15:42 72.13788 -90.27076 36384 ft 468 kts 232°
2026-05-05 15:42 72.09881 -90.44066 36375 ft 468 kts 232°
2026-05-05 15:43 72.05958 -90.60991 36374 ft 469 kts 232°
2026-05-05 15:43 72.02039 -90.77763 36375 ft 469 kts 232°
2026-05-05 15:44 71.98081 -90.94571 36379 ft 469 kts 232°
2026-05-05 15:44 71.94131 -91.11214 36375 ft 469 kts 232°
2026-05-05 15:45 71.90141 -91.27890 36370 ft 469 kts 232°
2026-05-05 15:45 71.86153 -91.44431 36382 ft 470 kts 232°
2026-05-05 15:46 71.82116 -91.61043 36377 ft 471 kts 231°
2026-05-05 15:46 71.78095 -91.77458 36376 ft 471 kts 231°
2026-05-05 15:47 71.74033 -91.93921 36382 ft 472 kts 231°
2026-05-05 15:47 71.69950 -92.10341 36382 ft 472 kts 231°
2026-05-05 15:48 71.65869 -92.26619 36377 ft 472 kts 231°
2026-05-05 15:48 71.61755 -92.42906 36386 ft 472 kts 231°
2026-05-05 15:49 71.57621 -92.59151 36390 ft 473 kts 231°
2026-05-05 15:49 71.53502 -92.75209 36384 ft 473 kts 231°
2026-05-05 15:50 71.49355 -92.91255 36389 ft 473 kts 230°
2026-05-05 15:50 71.45172 -93.07320 36391 ft 472 kts 230°
2026-05-05 15:51 71.41014 -93.23167 36405 ft 472 kts 230°
2026-05-05 15:51 71.36812 -93.39062 36400 ft 472 kts 230°
2026-05-05 15:52 71.32600 -93.54878 36397 ft 473 kts 230°
2026-05-05 15:52 71.28396 -93.70547 36410 ft 474 kts 230°
2026-05-05 15:53 71.24159 -93.86214 36405 ft 475 kts 230°
2026-05-05 15:53 71.19889 -94.01893 36405 ft 475 kts 230°
2026-05-05 15:54 71.15596 -94.17537 36407 ft 476 kts 230°
2026-05-05 15:54 71.11304 -94.33064 36405 ft 476 kts 229°
2026-05-05 15:55 71.06979 -94.48594 36399 ft 477 kts 229°
2026-05-05 15:55 71.02649 -94.64025 36399 ft 477 kts 229°
2026-05-05 15:56 70.98316 -94.79359 36401 ft 477 kts 229°
2026-05-05 15:56 70.93946 -94.94711 36392 ft 477 kts 229°
2026-05-05 15:57 70.89556 -95.10017 36397 ft 477 kts 229°
2026-05-05 15:57 70.85179 -95.25168 36396 ft 477 kts 229°
2026-05-05 15:58 70.80776 -95.40302 36388 ft 477 kts 229°
2026-05-05 15:58 70.76379 -95.55304 36377 ft 477 kts 229°
2026-05-05 15:59 70.71937 -95.70351 36376 ft 478 kts 229°
2026-05-05 15:59 70.67509 -95.85242 36376 ft 478 kts 229°
2026-05-05 16:00 70.63032 -96.00196 36370 ft 479 kts 228°
2026-05-05 16:00 70.58569 -96.14997 36371 ft 479 kts 228°
2026-05-05 16:01 70.54068 -96.29812 36372 ft 480 kts 228°
2026-05-05 16:01 70.49578 -96.44489 36369 ft 480 kts 228°
2026-05-05 16:02 70.45052 -96.59181 36369 ft 480 kts 228°
2026-05-05 16:02 70.40513 -96.73810 36360 ft 480 kts 228°
2026-05-05 16:03 70.35955 -96.88392 36372 ft 480 kts 227°
2026-05-05 16:03 70.31413 -97.02827 36370 ft 480 kts 227°
2026-05-05 16:04 70.26832 -97.17291 36370 ft 480 kts 227°
2026-05-05 16:04 70.22266 -97.31602 36372 ft 480 kts 227°
2026-05-05 16:05 70.17661 -97.45931 36366 ft 481 kts 227°
2026-05-05 16:05 70.13062 -97.60144 36370 ft 481 kts 227°
2026-05-05 16:06 70.08420 -97.74397 36369 ft 481 kts 227°
2026-05-05 16:06 70.03793 -97.88514 36371 ft 482 kts 227°
2026-05-05 16:07 69.99114 -98.02487 36364 ft 482 kts 224°
2026-05-05 16:07 69.94967 -98.13422 36377 ft 483 kts 223°
2026-05-05 16:08 69.89944 -98.26464 36370 ft 483 kts 223°
2026-05-05 16:08 69.84918 -98.39474 36365 ft 484 kts 223°
2026-05-05 16:09 69.79909 -98.52397 36370 ft 484 kts 223°
2026-05-05 16:09 69.74865 -98.65346 36370 ft 484 kts 223°
2026-05-05 16:10 69.69836 -98.78176 36371 ft 485 kts 223°
2026-05-05 16:10 69.64751 -98.91058 36373 ft 485 kts 223°
2026-05-05 16:11 69.59699 -99.03764 36368 ft 485 kts 222°
2026-05-05 16:12 69.49507 -99.29156 36370 ft 485 kts 222°
2026-05-05 16:13 69.36765 -99.60432 36369 ft 485 kts 222°
2026-05-05 16:13 69.31626 -99.72909 36370 ft 485 kts 221°
2026-05-05 16:14 69.21355 -99.97596 36362 ft 485 kts 221°
2026-05-05 16:15 69.11054 -100.22042 36369 ft 485 kts 221°
2026-05-05 16:16 69.00711 -100.46269 36371 ft 486 kts 221°
2026-05-05 16:17 68.92881 -100.64414 36370 ft 487 kts 221°
2026-05-05 16:18 68.85058 -100.82360 36373 ft 487 kts 221°
2026-05-05 16:19 68.77232 -101.00154 36379 ft 487 kts 221°
2026-05-05 16:19 68.69346 -101.17913 36383 ft 487 kts 221°
2026-05-05 16:20 68.58827 -101.41341 36370 ft 487 kts 220°
2026-05-05 16:22 68.45632 -101.70323 36359 ft 487 kts 220°
2026-05-05 16:23 68.35047 -101.93251 36375 ft 488 kts 220°
2026-05-05 16:23 68.27075 -102.10336 36378 ft 488 kts 220°
2026-05-05 16:24 68.21734 -102.21694 36378 ft 488 kts 220°
2026-05-05 16:25 68.13741 -102.38562 36380 ft 488 kts 220°
2026-05-05 16:25 68.05694 -102.55391 36371 ft 488 kts 219°
2026-05-05 16:26 67.94954 -102.77616 36381 ft 489 kts 219°
2026-05-05 16:27 67.89585 -102.88627 36380 ft 489 kts 219°
2026-05-05 16:27 67.84182 -102.99640 36382 ft 489 kts 219°
2026-05-05 16:28 67.78762 -103.10623 36382 ft 490 kts 219°
2026-05-05 16:28 67.73373 -103.21477 36370 ft 490 kts 219°
2026-05-05 16:29 67.67951 -103.32333 36381 ft 490 kts 219°
2026-05-05 16:29 67.62497 -103.43185 36382 ft 490 kts 219°
2026-05-05 16:30 67.57069 -103.53923 36385 ft 490 kts 219°
2026-05-05 16:30 67.51616 -103.64653 36386 ft 490 kts 219°
2026-05-05 16:31 67.46170 -103.75308 36385 ft 490 kts 219°
2026-05-05 16:31 67.40734 -103.85872 36377 ft 490 kts 218°
2026-05-05 16:32 67.35256 -103.96454 36365 ft 489 kts 218°
2026-05-05 16:32 67.29770 -104.06997 36376 ft 489 kts 218°
2026-05-05 16:33 67.24315 -104.17416 36382 ft 489 kts 218°
2026-05-05 16:33 67.18845 -104.27807 36376 ft 490 kts 218°
2026-05-05 16:34 67.13352 -104.38182 36371 ft 490 kts 218°
2026-05-05 16:34 67.07841 -104.48530 36373 ft 490 kts 218°
2026-05-05 16:35 67.02338 -104.58800 36348 ft 490 kts 218°
2026-05-05 16:35 66.96803 -104.69071 36368 ft 490 kts 218°
2026-05-05 16:36 66.91291 -104.79244 36367 ft 490 kts 218°
2026-05-05 16:36 66.85735 -104.89439 36359 ft 491 kts 218°
2026-05-05 16:37 66.80195 -104.99546 36363 ft 491 kts 218°
2026-05-05 16:37 66.74659 -105.09587 36363 ft 491 kts 218°
2026-05-05 16:38 66.69110 -105.19598 36354 ft 491 kts 218°
2026-05-05 16:38 66.63526 -105.29609 36348 ft 491 kts 218°
2026-05-05 16:39 66.57962 -105.39537 36350 ft 491 kts 218°
2026-05-05 16:39 66.52362 -105.49473 36345 ft 492 kts 218°
2026-05-05 16:40 66.46762 -105.59349 36356 ft 492 kts 218°
2026-05-05 16:40 66.41153 -105.69186 36341 ft 492 kts 217°
2026-05-05 16:41 66.35553 -105.78954 36339 ft 492 kts 217°
2026-05-05 16:41 66.29918 -105.88726 36318 ft 493 kts 217°
2026-05-05 16:42 66.24313 -105.98392 36343 ft 493 kts 217°
2026-05-05 16:42 66.18664 -106.08084 36356 ft 493 kts 217°
2026-05-05 16:43 66.13038 -106.17682 36341 ft 494 kts 217°
2026-05-05 16:43 66.07358 -106.27318 36340 ft 494 kts 217°
2026-05-05 16:44 66.01709 -106.36847 36332 ft 494 kts 217°
2026-05-05 16:44 65.96021 -106.46391 36335 ft 494 kts 217°
2026-05-05 16:45 65.90323 -106.55900 36334 ft 494 kts 217°
2026-05-05 16:45 65.84658 -106.65302 36337 ft 494 kts 217°
2026-05-05 16:46 65.78948 -106.74726 36328 ft 494 kts 217°
2026-05-05 16:46 65.73246 -106.84088 36334 ft 494 kts 217°
2026-05-05 16:47 65.67550 -106.93389 36346 ft 494 kts 217°
2026-05-05 16:47 65.61873 -107.02609 36348 ft 494 kts 216°
2026-05-05 16:48 65.56138 -107.11873 36321 ft 494 kts 217°
2026-05-05 16:48 65.50436 -107.21034 36339 ft 494 kts 217°
2026-05-05 16:49 65.44697 -107.30207 36349 ft 495 kts 217°
2026-05-05 16:49 65.38935 -107.39367 36337 ft 496 kts 216°
2026-05-05 16:50 65.33188 -107.48454 36342 ft 496 kts 216°
2026-05-05 16:50 65.27395 -107.57564 36335 ft 497 kts 216°
2026-05-05 16:51 65.21640 -107.66566 36314 ft 497 kts 216°
2026-05-05 16:51 65.15836 -107.75593 36337 ft 497 kts 216°
2026-05-05 16:52 65.10062 -107.84538 36340 ft 498 kts 216°
2026-05-05 16:52 65.04230 -107.93519 36347 ft 498 kts 216°
2026-05-05 16:53 64.98428 -108.02381 36337 ft 499 kts 216°
2026-05-05 16:53 64.92517 -108.11022 36337 ft 499 kts 214°
2026-05-05 16:54 64.87575 -108.18109 36345 ft 499 kts 214°
2026-05-05 16:54 64.81653 -108.26583 36333 ft 499 kts 215°
2026-05-05 16:55 64.75707 -108.35093 36335 ft 500 kts 215°
2026-05-05 16:55 64.69789 -108.43535 36338 ft 500 kts 215°
2026-05-05 16:56 64.63816 -108.52009 36339 ft 501 kts 215°
2026-05-05 16:56 64.57863 -108.60411 36339 ft 502 kts 214°
2026-05-05 16:57 64.51873 -108.68819 36338 ft 502 kts 214°
2026-05-05 16:57 64.45918 -108.77135 36315 ft 502 kts 215°
2026-05-05 16:58 64.39920 -108.85468 36331 ft 502 kts 215°
2026-05-05 16:58 64.33894 -108.93797 36338 ft 503 kts 215°
2026-05-05 16:59 64.27897 -109.02044 36334 ft 504 kts 214°
2026-05-05 16:59 64.21854 -109.10309 36339 ft 505 kts 214°
2026-05-05 17:00 64.15831 -109.18505 36354 ft 505 kts 214°
2026-05-05 17:00 64.09768 -109.26718 36318 ft 505 kts 215°
2026-05-05 17:01 64.03704 -109.34885 36338 ft 506 kts 215°
2026-05-05 17:01 63.97671 -109.42972 36348 ft 506 kts 214°
2026-05-05 17:02 63.91589 -109.51085 36343 ft 507 kts 214°
2026-05-05 17:02 63.85463 -109.59214 36344 ft 508 kts 214°
2026-05-05 17:03 63.79339 -109.67296 36340 ft 509 kts 214°
2026-05-05 17:03 63.73237 -109.75310 36301 ft 509 kts 215°
2026-05-05 17:04 63.67098 -109.83330 36339 ft 509 kts 215°
2026-05-05 17:04 63.60979 -109.91287 36350 ft 510 kts 215°
2026-05-05 17:05 63.54808 -109.99272 36345 ft 511 kts 214°
2026-05-05 17:05 63.48655 -110.07191 36346 ft 512 kts 214°
2026-05-05 17:06 63.42491 -110.15086 36352 ft 513 kts 214°
2026-05-05 17:06 63.36271 -110.23008 36302 ft 513 kts 215°
2026-05-05 17:07 63.30068 -110.30874 36347 ft 513 kts 215°
2026-05-05 17:07 63.23839 -110.38732 36352 ft 515 kts 215°
2026-05-05 17:08 63.17635 -110.46522 36354 ft 516 kts 215°
2026-05-05 17:08 63.11378 -110.54335 36355 ft 517 kts 214°
2026-05-05 17:09 63.05095 -110.62143 36349 ft 517 kts 214°
2026-05-05 17:09 62.98840 -110.69880 36303 ft 517 kts 215°
2026-05-05 17:10 62.92540 -110.77632 36351 ft 517 kts 215°
2026-05-05 17:10 62.86235 -110.85346 36356 ft 518 kts 215°
2026-05-05 17:11 62.79959 -110.92997 36367 ft 520 kts 215°
2026-05-05 17:11 62.73616 -111.00690 36355 ft 521 kts 214°
2026-05-05 17:12 62.67277 -111.08332 36358 ft 522 kts 214°
2026-05-05 17:12 62.60943 -111.15932 36306 ft 521 kts 215°
2026-05-05 17:13 62.54562 -111.23554 36335 ft 521 kts 215°
2026-05-05 17:13 62.48241 -111.31071 36350 ft 521 kts 215°
2026-05-05 17:14 62.41868 -111.38609 36340 ft 521 kts 215°
2026-05-05 17:14 62.35521 -111.46078 36348 ft 522 kts 214°
2026-05-05 17:15 62.29124 -111.53571 36339 ft 522 kts 214°
2026-05-05 17:15 62.22729 -111.61025 36342 ft 522 kts 214°
2026-05-05 17:16 62.16365 -111.68408 36334 ft 523 kts 214°
2026-05-05 17:16 62.09936 -111.75829 36338 ft 523 kts 214°
2026-05-05 17:17 62.03545 -111.83170 36333 ft 523 kts 214°
2026-05-05 17:17 61.97106 -111.90533 36333 ft 523 kts 214°
2026-05-05 17:18 61.90712 -111.97807 36327 ft 524 kts 214°
2026-05-05 17:18 61.84275 -112.05095 36321 ft 523 kts 214°
2026-05-05 17:19 61.77893 -112.12287 36323 ft 523 kts 214°
2026-05-05 17:19 61.71455 -112.19509 36327 ft 523 kts 214°
2026-05-05 17:20 61.65035 -112.26675 36326 ft 523 kts 214°
2026-05-05 17:20 61.58595 -112.33830 36327 ft 524 kts 214°
2026-05-05 17:21 61.52128 -112.40982 36272 ft 525 kts 214°
2026-05-05 17:22 61.42447 -112.51623 36313 ft 523 kts 214°
2026-05-05 17:22 61.36032 -112.58630 36327 ft 523 kts 214°
2026-05-05 17:23 61.29567 -112.65664 36321 ft 522 kts 214°
2026-05-05 17:23 61.23140 -112.72622 36318 ft 522 kts 214°
2026-05-05 17:24 61.16681 -112.79582 36325 ft 523 kts 213°
2026-05-05 17:24 61.10230 -112.86503 36311 ft 521 kts 214°
2026-05-05 17:25 61.03809 -112.93355 36313 ft 521 kts 214°
2026-05-05 17:25 60.97361 -113.00207 36312 ft 520 kts 214°
2026-05-05 17:26 60.90898 -113.07048 36317 ft 520 kts 214°
2026-05-05 17:26 60.84483 -113.13803 36313 ft 520 kts 214°
2026-05-05 17:27 60.78027 -113.20571 36277 ft 520 kts 214°
2026-05-05 17:27 60.71610 -113.27266 36297 ft 520 kts 214°
2026-05-05 17:28 60.65173 -113.33952 36305 ft 520 kts 214°
2026-05-05 17:28 60.58707 -113.40643 36308 ft 521 kts 213°
2026-05-05 17:29 60.52249 -113.47292 36298 ft 521 kts 213°
2026-05-05 17:29 60.45765 -113.53935 36300 ft 521 kts 213°
2026-05-05 17:30 60.39275 -113.60553 36293 ft 520 kts 213°
2026-05-05 17:30 60.32832 -113.67100 36292 ft 521 kts 213°
2026-05-05 17:31 60.26326 -113.73680 36290 ft 522 kts 213°
2026-05-05 17:31 60.19859 -113.80188 36287 ft 522 kts 213°
2026-05-05 17:32 60.13347 -113.86714 36279 ft 522 kts 213°
2026-05-05 17:32 60.06833 -113.93214 36241 ft 522 kts 213°
2026-05-05 17:33 60.00349 -113.99657 36284 ft 522 kts 213°
2026-05-05 17:33 59.93767 -114.05938 36282 ft 524 kts 212°
2026-05-05 17:34 59.87149 -114.11993 36279 ft 525 kts 211°
2026-05-05 17:34 59.80488 -114.18062 36278 ft 526 kts 212°
2026-05-05 17:35 59.73829 -114.24149 36276 ft 526 kts 212°
2026-05-05 17:35 59.67219 -114.30184 36250 ft 525 kts 212°
2026-05-05 17:36 59.60568 -114.36234 36255 ft 526 kts 212°
2026-05-05 17:36 59.53941 -114.42236 36246 ft 526 kts 212°
2026-05-05 17:37 59.47265 -114.48255 36236 ft 527 kts 212°
2026-05-05 17:37 59.40581 -114.54249 36225 ft 527 kts 212°
2026-05-05 17:38 59.33924 -114.60196 36181 ft 527 kts 212°
2026-05-05 17:38 59.27244 -114.66132 36218 ft 526 kts 212°
2026-05-05 17:39 59.20610 -114.72010 36230 ft 526 kts 212°
2026-05-05 17:39 59.13934 -114.77897 36233 ft 526 kts 212°
2026-05-05 17:40 59.07249 -114.83769 36227 ft 526 kts 212°
2026-05-05 17:40 59.00605 -114.89577 36231 ft 526 kts 212°
2026-05-05 17:41 58.95054 -114.94409 36209 ft 524 kts 212°
2026-05-05 17:41 58.87315 -115.01119 36241 ft 524 kts 212°
2026-05-05 17:42 58.81765 -115.05915 36246 ft 524 kts 212°
2026-05-05 17:42 58.75080 -115.11665 36258 ft 525 kts 212°
2026-05-05 17:43 58.68377 -115.17409 36264 ft 526 kts 212°
2026-05-05 17:43 58.61720 -115.23086 36261 ft 526 kts 212°
2026-05-05 17:44 58.54994 -115.28798 36268 ft 527 kts 212°
2026-05-05 17:44 58.48311 -115.34452 36268 ft 528 kts 212°
2026-05-05 17:45 58.41563 -115.40136 36270 ft 529 kts 211°
2026-05-05 17:45 58.34847 -115.45770 36269 ft 531 kts 211°
2026-05-05 17:46 58.28059 -115.51438 36269 ft 531 kts 211°
2026-05-05 17:46 58.21317 -115.57042 36267 ft 529 kts 212°
2026-05-05 17:47 58.14557 -115.62641 36276 ft 528 kts 212°
2026-05-05 17:47 58.07843 -115.68181 36259 ft 528 kts 211°
2026-05-05 17:48 58.01121 -115.73704 36267 ft 528 kts 211°
2026-05-05 17:48 57.94352 -115.79242 36257 ft 529 kts 211°
2026-05-05 17:49 57.87589 -115.84749 36215 ft 529 kts 212°
2026-05-05 17:49 57.80876 -115.90194 36230 ft 526 kts 212°
2026-05-05 17:50 57.74141 -115.95639 36240 ft 526 kts 211°
2026-05-05 17:50 57.67449 -116.01027 36242 ft 526 kts 211°
2026-05-05 17:51 57.60701 -116.06436 36238 ft 527 kts 211°
2026-05-05 17:51 57.53948 -116.11830 36178 ft 528 kts 211°
2026-05-05 17:52 57.47227 -116.17168 36229 ft 527 kts 211°
2026-05-05 17:52 57.40471 -116.22519 36242 ft 526 kts 211°
2026-05-05 17:53 57.33755 -116.27820 36230 ft 526 kts 211°
2026-05-05 17:53 57.26988 -116.33138 36231 ft 527 kts 211°
2026-05-05 17:54 57.20263 -116.38398 36229 ft 527 kts 211°
2026-05-05 17:54 57.13500 -116.43665 36222 ft 525 kts 211°
2026-05-05 17:55 57.06798 -116.48866 36222 ft 525 kts 211°
2026-05-05 17:55 57.00041 -116.54093 36228 ft 525 kts 211°
2026-05-05 17:56 56.93312 -116.59280 36231 ft 526 kts 211°
2026-05-05 17:56 56.86570 -116.64453 36228 ft 527 kts 211°
2026-05-05 17:57 56.79780 -116.69641 36224 ft 526 kts 211°
2026-05-05 17:57 56.73048 -116.74761 36227 ft 525 kts 211°
2026-05-05 17:58 56.66292 -116.79881 36239 ft 525 kts 211°
2026-05-05 17:58 56.59569 -116.84961 36231 ft 525 kts 211°
2026-05-05 17:59 56.52796 -116.90057 36241 ft 525 kts 211°
2026-05-05 17:59 56.46064 -116.95102 36205 ft 525 kts 210°
2026-05-05 18:00 56.39311 -117.00142 36234 ft 524 kts 210°
2026-05-05 18:00 56.32589 -117.05139 36252 ft 523 kts 210°
2026-05-05 18:01 56.25870 -117.10121 36245 ft 524 kts 210°
2026-05-05 18:01 56.19107 -117.15115 36243 ft 525 kts 210°
2026-05-05 18:02 56.12340 -117.20090 36177 ft 525 kts 210°
2026-05-05 18:02 56.05601 -117.25022 36208 ft 524 kts 210°
2026-05-05 18:03 55.98874 -117.29928 36236 ft 523 kts 210°
2026-05-05 18:03 55.92115 -117.34842 36232 ft 524 kts 210°
2026-05-05 18:04 55.85394 -117.39709 36235 ft 524 kts 210°
2026-05-05 18:04 55.78622 -117.44596 36189 ft 524 kts 210°
2026-05-05 18:05 55.71889 -117.49434 36233 ft 523 kts 209°
2026-05-05 18:05 55.65122 -117.54279 36234 ft 522 kts 209°
2026-05-05 18:06 55.58398 -117.59076 36231 ft 522 kts 209°
2026-05-05 18:06 55.51655 -117.63868 36233 ft 521 kts 209°
2026-05-05 18:07 55.44949 -117.68618 36229 ft 521 kts 209°
2026-05-05 18:07 55.38220 -117.73363 36224 ft 519 kts 209°
2026-05-05 18:08 55.31500 -117.78085 36224 ft 518 kts 209°
2026-05-05 18:08 55.24841 -117.82752 36227 ft 518 kts 209°
2026-05-05 18:09 55.18130 -117.87438 36217 ft 519 kts 209°
2026-05-05 18:09 55.11431 -117.92093 36219 ft 520 kts 209°
2026-05-05 18:10 55.04697 -117.96760 36220 ft 521 kts 209°
2026-05-05 18:10 54.97928 -118.01214 36207 ft 527 kts 204°
2026-05-05 18:11 54.90879 -118.04881 36218 ft 528 kts 203°
2026-05-05 18:11 54.83795 -118.08500 36207 ft 530 kts 203°
2026-05-05 18:12 54.76755 -118.12126 36212 ft 531 kts 203°
2026-05-05 18:12 54.69666 -118.15789 36195 ft 529 kts 203°
2026-05-05 18:13 54.62641 -118.19414 36189 ft 528 kts 203°
2026-05-05 18:13 54.55578 -118.23045 36198 ft 528 kts 202°
2026-05-05 18:14 54.48528 -118.26655 36199 ft 528 kts 202°
2026-05-05 18:14 54.41508 -118.30237 36180 ft 528 kts 202°
2026-05-05 18:15 54.34480 -118.33813 36166 ft 528 kts 202°
2026-05-05 18:15 54.27416 -118.37389 36178 ft 527 kts 202°
2026-05-05 18:16 54.20367 -118.40944 36186 ft 527 kts 202°
2026-05-05 18:16 54.13332 -118.44482 36173 ft 528 kts 202°
2026-05-05 18:17 54.06273 -118.48023 36176 ft 529 kts 202°
2026-05-05 18:17 53.99231 -118.51538 36139 ft 529 kts 202°
2026-05-05 18:18 53.92207 -118.55028 36179 ft 527 kts 202°
2026-05-05 18:18 53.85147 -118.58529 36185 ft 527 kts 202°
2026-05-05 18:19 53.78094 -118.62018 36179 ft 527 kts 202°
2026-05-05 18:19 53.71072 -118.65475 36170 ft 528 kts 202°
2026-05-05 18:20 53.64004 -118.68944 36151 ft 528 kts 201°
2026-05-05 18:20 53.56968 -118.72379 36193 ft 526 kts 201°
2026-05-05 18:21 53.49974 -118.75789 36197 ft 525 kts 201°
2026-05-05 18:21 53.42977 -118.79191 36197 ft 525 kts 201°
2026-05-05 18:22 53.35942 -118.82588 36212 ft 525 kts 201°
2026-05-05 18:22 53.28951 -118.85966 36210 ft 525 kts 201°
2026-05-05 18:23 53.21905 -118.89345 36220 ft 524 kts 201°
2026-05-05 18:23 53.14924 -118.92685 36221 ft 524 kts 201°
2026-05-05 18:24 53.07893 -118.96044 36184 ft 525 kts 201°
2026-05-05 18:24 53.00885 -118.99399 36166 ft 528 kts 201°
2026-05-05 18:25 52.93812 -119.02737 36191 ft 527 kts 201°
2026-05-05 18:25 52.86763 -119.06064 36172 ft 525 kts 201°
2026-05-05 18:26 52.79778 -119.09348 36182 ft 523 kts 201°
2026-05-05 18:26 52.72755 -119.12645 36166 ft 522 kts 201°
2026-05-05 18:27 52.65799 -119.15910 36126 ft 521 kts 200°
2026-05-05 18:27 52.58810 -119.19154 36162 ft 521 kts 201°
2026-05-05 18:28 52.49527 -119.23486 36178 ft 523 kts 200°
2026-05-05 18:28 52.41338 -119.27260 36144 ft 526 kts 200°
2026-05-05 18:29 52.35479 -119.29969 36147 ft 527 kts 200°
2026-05-05 18:29 52.28413 -119.33216 36141 ft 527 kts 200°
2026-05-05 18:30 52.21347 -119.36442 36117 ft 526 kts 200°
2026-05-05 18:30 52.14321 -119.39655 36134 ft 524 kts 200°
2026-05-05 18:31 52.07336 -119.42830 36113 ft 522 kts 200°
2026-05-05 18:31 52.00345 -119.46004 36113 ft 520 kts 200°
2026-05-05 18:32 51.93347 -119.49171 36099 ft 521 kts 200°
2026-05-05 18:32 51.86380 -119.52313 36046 ft 521 kts 200°
2026-05-05 18:33 51.79422 -119.55434 36082 ft 520 kts 200°
2026-05-05 18:33 51.72456 -119.58550 36085 ft 520 kts 200°
2026-05-05 18:34 51.65461 -119.61669 36045 ft 523 kts 200°
2026-05-05 18:34 51.58473 -119.64786 36070 ft 524 kts 200°
2026-05-05 18:35 51.51417 -119.67914 36063 ft 526 kts 200°
2026-05-05 18:35 51.44395 -119.71019 36064 ft 525 kts 200°
2026-05-05 18:36 51.37318 -119.74144 36054 ft 525 kts 199°
2026-05-05 18:36 51.30318 -119.77217 36048 ft 525 kts 199°
2026-05-05 18:37 51.23260 -119.80301 36059 ft 525 kts 199°
2026-05-05 18:37 51.16234 -119.83364 36036 ft 524 kts 199°
2026-05-05 18:38 51.09191 -119.86424 36046 ft 523 kts 199°
2026-05-05 18:38 51.02163 -119.89479 36040 ft 523 kts 199°
2026-05-05 18:39 50.95170 -119.92505 36029 ft 523 kts 199°
2026-05-05 18:39 50.88140 -119.95538 36022 ft 522 kts 199°
2026-05-05 18:40 50.81157 -119.98535 36023 ft 522 kts 199°
2026-05-05 18:40 50.74139 -120.01539 36027 ft 522 kts 199°
2026-05-05 18:41 50.67105 -120.04544 36034 ft 523 kts 199°
2026-05-05 18:41 50.60065 -120.07541 36039 ft 524 kts 199°
2026-05-05 18:42 50.53047 -120.10519 36021 ft 525 kts 199°
2026-05-05 18:42 50.45985 -120.13507 36026 ft 523 kts 199°
2026-05-05 18:43 50.38995 -120.16452 36026 ft 522 kts 199°
2026-05-05 18:43 50.31972 -120.19406 36019 ft 521 kts 199°
2026-05-05 18:44 50.24967 -120.22342 36017 ft 520 kts 199°
2026-05-05 18:44 50.18006 -120.25253 36002 ft 520 kts 199°
2026-05-05 18:45 50.11036 -120.28157 36029 ft 519 kts 199°
2026-05-05 18:45 50.04035 -120.31065 36019 ft 520 kts 199°
2026-05-05 18:46 49.97078 -120.33948 36023 ft 520 kts 199°
2026-05-05 18:46 49.90049 -120.36850 36026 ft 521 kts 199°
2026-05-05 18:47 49.83069 -120.39723 36000 ft 521 kts 198°
2026-05-05 18:47 49.76032 -120.42610 36013 ft 520 kts 198°
2026-05-05 18:48 49.69083 -120.45454 36012 ft 520 kts 198°
2026-05-05 18:48 49.62091 -120.48305 35910 ft 521 kts 198°
2026-05-05 18:49 49.58566 -120.49739 35639 ft 522 kts 198°
2026-05-05 18:49 49.55045 -120.51170 35370 ft 522 kts 198°
2026-05-05 18:49 49.51535 -120.52595 35075 ft 520 kts 198°
2026-05-05 18:49 49.48046 -120.54007 34823 ft 517 kts 198°
2026-05-05 18:50 49.44576 -120.55410 34559 ft 515 kts 198°
2026-05-05 18:50 49.41140 -120.56798 34305 ft 513 kts 198°
2026-05-05 18:50 49.37693 -120.58191 34053 ft 511 kts 198°
2026-05-05 18:50 49.34247 -120.59581 33834 ft 511 kts 198°
2026-05-05 18:51 49.30790 -120.60973 33602 ft 516 kts 198°
2026-05-05 18:51 49.27308 -120.62373 33367 ft 520 kts 198°
2026-05-05 18:51 49.23797 -120.63779 33141 ft 521 kts 198°
2026-05-05 18:51 49.20340 -120.65162 32854 ft 520 kts 198°
2026-05-05 18:52 49.16839 -120.66562 32668 ft 518 kts 197°
2026-05-05 18:52 49.13357 -120.67952 32458 ft 517 kts 198°
2026-05-05 18:52 49.09879 -120.69340 32267 ft 515 kts 198°
2026-05-05 18:52 49.06467 -120.70947 32039 ft 512 kts 203°
2026-05-05 18:53 49.03181 -120.73001 31846 ft 509 kts 208°
2026-05-05 18:53 49.00048 -120.75502 31658 ft 509 kts 214°
2026-05-05 18:53 48.96978 -120.78239 31486 ft 513 kts 214°
2026-05-05 18:53 48.93897 -120.80977 31253 ft 511 kts 214°
2026-05-05 18:54 48.90841 -120.83670 30790 ft 503 kts 213°
2026-05-05 18:54 48.87813 -120.86322 30076 ft 503 kts 213°
2026-05-05 18:54 48.84767 -120.88977 29224 ft 504 kts 213°
2026-05-05 18:54 48.81720 -120.91617 28400 ft 504 kts 213°
2026-05-05 18:55 48.78689 -120.94236 27765 ft 499 kts 213°
2026-05-05 18:55 48.75675 -120.96825 27188 ft 495 kts 213°
2026-05-05 18:55 48.72693 -120.99383 26527 ft 490 kts 213°
2026-05-05 18:55 48.69716 -121.01925 25823 ft 490 kts 213°
2026-05-05 18:56 48.66766 -121.04465 25215 ft 486 kts 213°
2026-05-05 18:56 48.63843 -121.06981 24680 ft 482 kts 213°
2026-05-05 18:56 48.60937 -121.09484 24055 ft 481 kts 213°
2026-05-05 18:56 48.58040 -121.11969 23618 ft 476 kts 213°
2026-05-05 18:57 48.55171 -121.14411 23127 ft 471 kts 212°
2026-05-05 18:57 48.52336 -121.16823 22650 ft 465 kts 212°
2026-05-05 18:57 48.49533 -121.19213 22181 ft 460 kts 212°
2026-05-05 18:57 48.46807 -121.21529 21692 ft 450 kts 212°
2026-05-05 18:58 48.44110 -121.23823 21351 ft 442 kts 212°
2026-05-05 18:58 48.41435 -121.26098 20883 ft 440 kts 212°
2026-05-05 18:58 48.38780 -121.28360 20434 ft 437 kts 212°
2026-05-05 18:58 48.36145 -121.30594 20001 ft 433 kts 212°
2026-05-05 18:59 48.33530 -121.32800 19597 ft 429 kts 212°
2026-05-05 18:59 48.30925 -121.34993 19128 ft 428 kts 212°
2026-05-05 18:59 48.28337 -121.37179 18726 ft 426 kts 212°
2026-05-05 18:59 48.25756 -121.39364 18221 ft 425 kts 211°
2026-05-05 19:00 48.23187 -121.41523 17762 ft 422 kts 211°
2026-05-05 19:00 48.20631 -121.43671 17248 ft 420 kts 211°
2026-05-05 19:00 48.18118 -121.45788 16740 ft 406 kts 211°
2026-05-05 19:00 48.15707 -121.47802 16353 ft 388 kts 211°
2026-05-05 19:01 48.13395 -121.49733 15949 ft 374 kts 211°
2026-05-05 19:01 48.11172 -121.51595 15555 ft 359 kts 211°
2026-05-05 19:01 48.08999 -121.53414 15223 ft 357 kts 211°
2026-05-05 19:01 48.06839 -121.55223 14862 ft 355 kts 211°
2026-05-05 19:02 48.04685 -121.57025 14513 ft 355 kts 211°
2026-05-05 19:02 48.02550 -121.58807 14107 ft 355 kts 211°
2026-05-05 19:02 48.00394 -121.60607 13734 ft 353 kts 211°
2026-05-05 19:02 47.98253 -121.62391 13335 ft 351 kts 211°
2026-05-05 19:03 47.96128 -121.64153 12953 ft 348 kts 211°
2026-05-05 19:03 47.94018 -121.65902 12545 ft 346 kts 211°
2026-05-05 19:03 47.91920 -121.67644 12188 ft 343 kts 211°
2026-05-05 19:03 47.89862 -121.69405 11837 ft 336 kts 216°
2026-05-05 19:04 47.88236 -121.71807 11463 ft 328 kts 240°
2026-05-05 19:04 47.87310 -121.74854 11117 ft 319 kts 254°
2026-05-05 19:04 47.86673 -121.78003 10764 ft 317 kts 256°
2026-05-05 19:04 47.86089 -121.81159 10419 ft 315 kts 257°
2026-05-05 19:05 47.85521 -121.84262 10316 ft 305 kts 257°
2026-05-05 19:05 47.84982 -121.87231 10213 ft 288 kts 257°
2026-05-05 19:05 47.84486 -121.89978 10085 ft 269 kts 257°
2026-05-05 19:05 47.84011 -121.92607 9823 ft 257 kts 258°
2026-05-05 19:06 47.83557 -121.95129 9486 ft 247 kts 257°
2026-05-05 19:06 47.83118 -121.97573 9057 ft 241 kts 258°
2026-05-05 19:06 47.82690 -121.99976 8569 ft 239 kts 257°
2026-05-05 19:06 47.82263 -122.02368 8054 ft 238 kts 258°
2026-05-05 19:07 47.81842 -122.04745 7569 ft 237 kts 257°
2026-05-05 19:07 47.81420 -122.07127 7157 ft 239 kts 257°
2026-05-05 19:07 47.80998 -122.09502 6874 ft 236 kts 257°
2026-05-05 19:07 47.80596 -122.11857 6571 ft 234 kts 258°
2026-05-05 19:08 47.80214 -122.14208 6239 ft 233 kts 258°
2026-05-05 19:08 47.79830 -122.16543 5923 ft 232 kts 258°
2026-05-05 19:08 47.79398 -122.18838 5570 ft 229 kts 247°
2026-05-05 19:08 47.78401 -122.20675 5197 ft 228 kts 219°
2026-05-05 19:09 47.77156 -122.22048 5146 ft 232 kts 218°
2026-05-05 19:09 47.75855 -122.23467 5007 ft 230 kts 218°
2026-05-05 19:09 47.74609 -122.24827 4985 ft 220 kts 218°
2026-05-05 19:09 47.73388 -122.26153 4984 ft 218 kts 218°
2026-05-05 19:10 47.72151 -122.27489 4986 ft 221 kts 218°
2026-05-05 19:10 47.70899 -122.28846 4996 ft 224 kts 218°
2026-05-05 19:10 47.69633 -122.30213 4951 ft 226 kts 218°
2026-05-05 19:10 47.68245 -122.31300 4651 ft 229 kts 193°
2026-05-05 19:11 47.66670 -122.31559 4406 ft 228 kts 184°
2026-05-05 19:11 47.65095 -122.31637 4139 ft 224 kts 181°
2026-05-05 19:11 47.63562 -122.31654 3833 ft 220 kts 181°
2026-05-05 19:11 47.62047 -122.31665 3537 ft 215 kts 181°
2026-05-05 19:12 47.60565 -122.31675 3257 ft 210 kts 181°
2026-05-05 19:12 47.59132 -122.31685 2975 ft 204 kts 183°
2026-05-05 19:12 47.57747 -122.31695 2690 ft 192 kts 182°
2026-05-05 19:12 47.56467 -122.31708 2461 ft 176 kts 182°
2026-05-05 19:13 47.55299 -122.31716 2218 ft 158 kts 184°
2026-05-05 19:13 47.54270 -122.31725 2046 ft 145 kts 183°
2026-05-05 19:13 47.53242 -122.31733 1833 ft 151 kts 181°
2026-05-05 19:13 47.52173 -122.31740 1629 ft 155 kts 182°
2026-05-05 19:14 47.51098 -122.31751 1395 ft 153 kts 182°
2026-05-05 19:14 47.50051 -122.31759 1199 ft 150 kts 182°
2026-05-05 19:14 47.49003 -122.31768 997 ft 150 kts 181°
2026-05-05 19:14 47.47956 -122.31771 798 ft 151 kts 182°
2026-05-05 19:15 47.46921 -122.31785 570 ft 144 kts 182°
2026-05-05 19:15 47.45934 -122.31785 425 ft 144 kts 183°
2026-05-05 19:15 47.44855 -122.31803 1036 ft 157 kts 183°
2026-05-05 19:15 47.43801 -122.31820 1645 ft 156 kts 183°
2026-05-05 19:16 47.42703 -122.31834 2207 ft 152 kts 183°
2026-05-05 19:16 47.41660 -122.32001 2646 ft 154 kts 205°
2026-05-05 19:16 47.40729 -122.32786 3097 ft 156 kts 211°
2026-05-05 19:16 47.39749 -122.33606 3474 ft 170 kts 210°
2026-05-05 19:17 47.38654 -122.34510 3878 ft 190 kts 211°
2026-05-05 19:17 47.37652 -122.35876 4272 ft 206 kts 244°
2026-05-05 19:17 47.37359 -122.37212 4648 ft 210 kts 266°
2026-05-05 19:17 47.37466 -122.39390 5015 ft 215 kts 283°
2026-05-05 19:18 47.37765 -122.41581 5002 ft 217 kts 284°
2026-05-05 19:18 47.38114 -122.43733 4986 ft 213 kts 293°
2026-05-05 19:18 47.38972 -122.45441 4991 ft 209 kts 327°
2026-05-05 19:18 47.40338 -122.46074 5004 ft 209 kts
2026-05-05 19:19 47.41759 -122.45659 5009 ft 210 kts 14°
2026-05-05 19:19 47.43184 -122.45100 5013 ft 213 kts 14°
2026-05-05 19:19 47.44615 -122.44541 5000 ft 211 kts 14°
2026-05-05 19:19 47.46024 -122.44355 4997 ft 203 kts 357°
2026-05-05 19:20 47.47431 -122.44389 5012 ft 209 kts
2026-05-05 19:20 47.48897 -122.44355 5011 ft 211 kts
2026-05-05 19:20 47.50354 -122.44313 4977 ft 207 kts
2026-05-05 19:20 47.51780 -122.44272 4959 ft 203 kts
2026-05-05 19:21 47.53188 -122.44231 4981 ft 203 kts
2026-05-05 19:21 47.54618 -122.44186 4992 ft 208 kts
2026-05-05 19:21 47.56079 -122.44141 4994 ft 211 kts
2026-05-05 19:21 47.57544 -122.44097 4991 ft 211 kts
2026-05-05 19:22 47.59011 -122.44052 4992 ft 211 kts
2026-05-05 19:22 47.60473 -122.44007 4982 ft 209 kts
2026-05-05 19:22 47.61924 -122.43962 4981 ft 207 kts
2026-05-05 19:22 47.63359 -122.43917 4977 ft 206 kts
2026-05-05 19:23 47.64776 -122.43873 5012 ft 202 kts
2026-05-05 19:23 47.66193 -122.43829 4998 ft 205 kts
2026-05-05 19:23 47.67602 -122.43687 4940 ft 203 kts 14°
2026-05-05 19:23 47.68793 -122.42582 4718 ft 207 kts 50°
2026-05-05 19:24 47.69312 -122.40620 4512 ft 208 kts 84°
2026-05-05 19:24 47.69339 -122.38515 4349 ft 204 kts 87°
2026-05-05 19:24 47.69329 -122.36451 4156 ft 199 kts 97°
2026-05-05 19:24 47.68657 -122.34754 4033 ft 194 kts 146°
2026-05-05 19:25 47.67449 -122.33797 4024 ft 201 kts 151°
2026-05-05 19:25 47.66231 -122.32743 4000 ft 202 kts 148°
2026-05-05 19:25 47.65021 -122.31727 3971 ft 197 kts 161°
2026-05-05 19:25 47.63683 -122.31584 4008 ft 195 kts 184°
2026-05-05 19:26 47.62295 -122.31646 3995 ft 202 kts 182°
2026-05-05 19:26 47.60879 -122.31666 3849 ft 205 kts 181°
2026-05-05 19:26 47.59444 -122.31680 3482 ft 208 kts 181°
2026-05-05 19:26 47.57993 -122.31694 2966 ft 206 kts 181°
2026-05-05 19:27 47.56611 -122.31705 2462 ft 196 kts 183°
2026-05-05 19:27 47.55312 -122.31717 2226 ft 179 kts 183°
2026-05-05 19:27 47.54124 -122.31726 2009 ft 162 kts 182°
2026-05-05 19:27 47.53066 -122.31734 1785 ft 141 kts 183°
2026-05-05 19:28 47.52048 -122.31744 1619 ft 151 kts 183°
2026-05-05 19:28 47.50992 -122.31753 1385 ft 151 kts 181°
2026-05-05 19:28 47.49965 -122.31758 1184 ft 148 kts 182°
2026-05-05 19:28 47.48933 -122.31767 992 ft 149 kts 181°
2026-05-05 19:29 47.47888 -122.31777 785 ft 149 kts 182°
2026-05-05 19:29 47.46873 -122.31782 546 ft 143 kts 183°
2026-05-05 19:29 47.45891 -122.31792 417 ft 136 kts 180°
2026-05-05 19:29 47.45086 -122.31799 398 ft 89 kts 180°
2026-05-05 19:30 47.44652 -122.31803 388 ft 44 kts 180°
2026-05-05 19:30 47.44389 -122.31784 378 ft 33 kts 167°
2026-05-05 19:30 47.44217 -122.31677 374 ft 22 kts 151°
2026-05-05 19:30 47.44086 -122.31568 372 ft 22 kts 150°
2026-05-05 19:31 47.43956 -122.31459 372 ft 22 kts 150°
2026-05-05 19:31 47.43870 -122.31385 377 ft 8 kts 149°
2026-05-05 19:31 47.43825 -122.31334 374 ft 8 kts 127°
2026-05-05 19:31 47.43808 -122.31254 378 ft 8 kts 95°
2026-05-05 19:32 47.43808 -122.31168 376 ft 8 kts 90°
2026-05-05 19:32 47.43808 -122.31062 376 ft 12 kts 90°
2026-05-05 19:32 47.43807 -122.30936 378 ft 12 kts 90°
2026-05-05 19:32 47.43807 -122.30810 381 ft 12 kts 90°
2026-05-05 19:33 47.43805 -122.30691 381 ft 4 kts 89°
2026-05-05 19:33 47.43806 -122.30683 381 ft 1 kts 89°
2026-05-05 19:33 47.43800 -122.30659 382 ft 6 kts 126°
2026-05-05 19:33 47.43739 -122.30631 381 ft 9 kts 150°
2026-05-05 19:34 47.43723 -122.30544 383 ft 9 kts 91°
2026-05-05 19:34 47.43722 -122.30450 385 ft 10 kts 91°
2026-05-05 19:34 47.43722 -122.30341 386 ft 11 kts 85°
2026-05-05 19:35 47.43762 -122.30159 388 ft 6 kts 35°
2026-05-05 19:35 47.43802 -122.30138 390 ft 5 kts 13°
2026-05-05 19:35 47.43822 -122.30131 391 ft 2 kts 13°
2026-05-05 19:35 47.43826 -122.30129 391 ft 0 kts 13°